| time (UTC) | temp F | wind direction | speed MPH | gust MPH | rain 1hr in | rain 24hr in | rain mn in | humidity % | barometer mb |
| 20260505073013 | 69 | 103 | 0.0 | 2.0 | 0.00 | 0.00 | 0.00 | 55 | 1019.4 |
| 20260505072909 | 69 | 103 | 0.0 | 2.0 | 0.00 | 0.00 | 0.00 | 55 | 1019.4 |
| 20260505072811 | 69 | 103 | 0.0 | 2.0 | 0.00 | 0.00 | 0.00 | 55 | 1019.4 |
| 20260505072710 | 69 | 103 | 0.0 | 2.0 | 0.00 | 0.00 | 0.00 | 55 | 1019.4 |
| 20260505072527 | 69 | 103 | 1.0 | 2.0 | 0.00 | 0.00 | 0.00 | 54 | 1019.4 |
| 20260505072504 | 69 | 150 | 1.0 | 2.0 | 0.00 | 0.00 | 0.00 | 54 | 1019.3 |
| 20260505072412 | 69 | 150 | 0.0 | 2.0 | 0.00 | 0.00 | 0.00 | 54 | 1019.4 |
| 20260505072346 | 70 | 150 | 0.0 | 1.0 | 0.00 | 0.00 | 0.00 | 54 | 1019.3 |
| 20260505072321 | 70 | 150 | 0.0 | 2.0 | 0.00 | 0.00 | 0.00 | 54 | 1019.3 |
| 20260505072013 | 70 | 150 | 0.0 | 2.0 | 0.00 | 0.00 | 0.00 | 53 | 1019.2 |
| 20260505071909 | 70 | 150 | 0.0 | 2.0 | 0.00 | 0.00 | 0.00 | 53 | 1019.2 |
| 20260505071813 | 70 | 150 | 0.0 | 2.0 | 0.00 | 0.00 | 0.00 | 53 | 1019.3 |
| 20260505071709 | 70 | 150 | 0.0 | 2.0 | 0.00 | 0.00 | 0.00 | 53 | 1019.2 |
| 20260505071512 | 70 | 150 | 0.0 | 2.0 | 0.00 | 0.00 | 0.00 | 53 | 1019.2 |
| 20260505071409 | 70 | 150 | 0.0 | 3.0 | 0.00 | 0.00 | 0.00 | 53 | 1019.1 |
| 20260505071312 | 70 | 150 | 0.0 | 5.0 | 0.00 | 0.00 | 0.00 | 53 | 1019.2 |
| 20260505071212 | 70 | 150 | 0.0 | 5.0 | 0.00 | 0.00 | 0.00 | 53 | 1019.2 |
| 20260505071011 | 70 | 171 | 0.0 | 6.0 | 0.00 | 0.00 | 0.00 | 53 | 1019.0 |
| 20260505070909 | 70 | 171 | 0.0 | 6.0 | 0.00 | 0.00 | 0.00 | 52 | 1019.1 |
| 20260505070812 | 70 | 171 | 0.0 | 6.0 | 0.00 | 0.00 | 0.00 | 52 | 1019.2 |
| 20260505070709 | 70 | 171 | 0.0 | 6.0 | 0.00 | 0.00 | 0.00 | 52 | 1019.1 |
| 20260505070509 | 70 | 141 | 1.0 | 6.0 | 0.00 | 0.00 | 0.00 | 52 | 1019.2 |
| 20260505070409 | 70 | 148 | 1.0 | 6.0 | 0.00 | 0.00 | 0.00 | 52 | 1019.0 |
| 20260505070312 | 70 | 161 | 3.0 | 6.0 | 0.00 | 0.00 | 0.00 | 52 | 1019.0 |
| 20260505070205 | 70 | 157 | 2.0 | 6.0 | 0.00 | 0.00 | 0.00 | 52 | 1019.1 |
| 20260505070104 | 71 | 153 | 2.0 | 6.0 | 0.00 | 0.00 | 0.00 | 51 | 1019.0 |
| 20260505070005 | 71 | 192 | 1.0 | 6.0 | 0.00 | 0.00 | 0.00 | 51 | 1019.0 |
| 20260505065923 | 71 | 143 | 0.0 | 6.0 | 0.00 | 0.00 | 0.00 | 51 | 1019.0 |
| 20260505065859 | 71 | 171 | 0.0 | 6.0 | 0.00 | 0.00 | 0.00 | 50 | 1019.0 |
| 20260505065839 | 71 | 171 | 0.0 | 6.0 | 0.00 | 0.00 | 0.00 | 50 | 1018.9 |
| 20260505065554 | 71 | 140 | 0.0 | 6.0 | 0.00 | 0.00 | 0.00 | 49 | 1019.0 |
| 20260505065452 | 71 | 140 | 1.0 | 6.0 | 0.00 | 0.00 | 0.00 | 49 | 1019.0 |
| 20260505065350 | 71 | 140 | 3.0 | 6.0 | 0.00 | 0.00 | 0.00 | 49 | 1018.9 |
| 20260505065249 | 71 | 173 | 3.0 | 6.0 | 0.00 | 0.00 | 0.00 | 48 | 1018.8 |
| 20260505065148 | 71 | 158 | 2.0 | 6.0 | 0.00 | 0.00 | 0.00 | 48 | 1018.8 |
| 20260505065051 | 71 | 178 | 1.0 | 5.0 | 0.00 | 0.00 | 0.00 | 47 | 1018.8 |
| 20260505064949 | 71 | 157 | 1.0 | 5.0 | 0.00 | 0.00 | 0.00 | 46 | 1018.8 |
| 20260505064850 | 71 | 152 | 1.0 | 5.0 | 0.00 | 0.00 | 0.00 | 45 | 1018.7 |
| 20260505064747 | 72 | 168 | 2.0 | 5.0 | 0.00 | 0.00 | 0.00 | 44 | 1018.8 |
| 20260505064643 | 72 | 157 | 3.0 | 5.0 | 0.00 | 0.00 | 0.00 | 44 | 1018.8 |
| 20260505064538 | 72 | 186 | 2.0 | 5.0 | 0.00 | 0.00 | 0.00 | 44 | 1018.7 |
| 20260505064439 | 72 | 177 | 2.0 | 5.0 | 0.00 | 0.00 | 0.00 | 45 | 1018.7 |
| 20260505064339 | 72 | 253 | 2.0 | 5.0 | 0.00 | 0.00 | 0.00 | 44 | 1018.7 |
| 20260505064240 | 72 | 237 | 2.0 | 5.0 | 0.00 | 0.00 | 0.00 | 44 | 1018.6 |
| 20260505064138 | 72 | 229 | 3.0 | 5.0 | 0.00 | 0.00 | 0.00 | 44 | 1018.6 |
| 20260505064037 | 72 | 205 | 2.0 | 5.0 | 0.00 | 0.00 | 0.00 | 44 | 1018.6 |
| 20260505063938 | 72 | 225 | 2.0 | 4.0 | 0.00 | 0.00 | 0.00 | 44 | 1018.6 |
| 20260505063918 | 72 | 259 | 2.0 | 6.0 | 0.00 | 0.00 | 0.00 | 44 | 1018.5 |
| 20260505063856 | 72 | 265 | 2.0 | 6.0 | 0.00 | 0.00 | 0.00 | 44 | 1018.5 |
| 20260505063833 | 72 | 253 | 1.0 | 6.0 | 0.00 | 0.00 | 0.00 | 44 | 1018.6 |
| 20260505063539 | 72 | 249 | 1.0 | 7.0 | 0.00 | 0.00 | 0.00 | 44 | 1018.5 |
| 20260505063437 | 73 | 249 | 1.0 | 7.0 | 0.00 | 0.00 | 0.00 | 43 | 1018.6 |
| 20260505063337 | 73 | 247 | 1.0 | 7.0 | 0.00 | 0.00 | 0.00 | 44 | 1018.5 |
| 20260505063239 | 73 | 242 | 2.0 | 7.0 | 0.00 | 0.00 | 0.00 | 44 | 1018.5 |
| 20260505063138 | 73 | 244 | 2.0 | 7.0 | 0.00 | 0.00 | 0.00 | 43 | 1018.5 |
| 20260505063038 | 73 | 226 | 3.0 | 7.0 | 0.00 | 0.00 | 0.00 | 43 | 1018.5 |
| 20260505062937 | 73 | 225 | 3.0 | 7.0 | 0.00 | 0.00 | 0.00 | 43 | 1018.5 |
| 20260505062838 | 73 | 190 | 3.0 | 7.0 | 0.00 | 0.00 | 0.00 | 43 | 1018.5 |
| 20260505062736 | 73 | 244 | 4.0 | 7.0 | 0.00 | 0.00 | 0.00 | 44 | 1018.5 |
| 20260505062639 | 73 | 255 | 4.0 | 8.0 | 0.00 | 0.00 | 0.00 | 43 | 1018.5 |
| 20260505062537 | 73 | 216 | 2.0 | 8.0 | 0.00 | 0.00 | 0.00 | 44 | 1018.4 |
| 20260505062434 | 73 | 260 | 2.0 | 8.0 | 0.00 | 0.00 | 0.00 | 43 | 1018.5 |
| 20260505062340 | 73 | 273 | 2.0 | 8.0 | 0.00 | 0.00 | 0.00 | 43 | 1018.5 |
| 20260505062237 | 73 | 252 | 2.0 | 8.0 | 0.00 | 0.00 | 0.00 | 43 | 1018.5 |
| 20260505062135 | 73 | 242 | 2.0 | 8.0 | 0.00 | 0.00 | 0.00 | 43 | 1018.5 |
| 20260505062030 | 73 | 227 | 2.0 | 8.0 | 0.00 | 0.00 | 0.00 | 43 | 1018.5 |
| 20260505061930 | 73 | 228 | 3.0 | 8.0 | 0.00 | 0.00 | 0.00 | 42 | 1018.4 |
| 20260505061828 | 73 | 179 | 5.0 | 8.0 | 0.00 | 0.00 | 0.00 | 43 | 1018.4 |
| 20260505061723 | 73 | 207 | 4.0 | 8.0 | 0.00 | 0.00 | 0.00 | 42 | 1018.4 |
| 20260505061622 | 73 | 231 | 2.0 | 7.0 | 0.00 | 0.00 | 0.00 | 43 | 1018.4 |
| 20260505061519 | 73 | 189 | 3.0 | 7.0 | 0.00 | 0.00 | 0.00 | 43 | 1018.4 |
| 20260505061419 | 73 | 234 | 4.0 | 7.0 | 0.00 | 0.00 | 0.00 | 43 | 1018.4 |
| 20260505061315 | 73 | 251 | 2.0 | 7.0 | 0.00 | 0.00 | 0.00 | 43 | 1018.4 |
| 20260505061211 | 73 | 268 | 2.0 | 7.0 | 0.00 | 0.00 | 0.00 | 44 | 1018.4 |
| 20260505061011 | 73 | 215 | 3.0 | 6.0 | 0.00 | 0.00 | 0.00 | 43 | 1018.5 |
| 20260505060937 | 73 | 206 | 3.0 | 6.0 | 0.00 | 0.00 | 0.00 | 42 | 1018.5 |
| 20260505060913 | 73 | 226 | 2.0 | 7.0 | 0.00 | 0.00 | 0.00 | 42 | 1018.5 |
| 20260505060854 | 73 | 238 | 2.0 | 7.0 | 0.00 | 0.00 | 0.00 | 43 | 1018.5 |
| 20260505060821 | 73 | 215 | 1.0 | 7.0 | 0.00 | 0.00 | 0.00 | 43 | 1018.4 |
| 20260505060512 | 73 | 251 | 2.0 | 10.0 | 0.00 | 0.00 | 0.00 | 42 | 1018.4 |
| 20260505060410 | 74 | 225 | 3.0 | 10.0 | 0.00 | 0.00 | 0.00 | 43 | 1018.4 |
| 20260505060323 | 73 | 217 | 3.0 | 10.0 | 0.00 | 0.00 | 0.00 | 43 | 1018.4 |
| 20260505060211 | 74 | 238 | 3.0 | 10.0 | 0.00 | 0.00 | 0.00 | 42 | 1018.4 |
| 20260505060012 | 74 | 222 | 4.0 | 10.0 | 0.00 | 0.00 | 0.00 | 42 | 1018.5 |
| 20260505055910 | 74 | 204 | 4.0 | 10.0 | 0.00 | 0.00 | 0.00 | 42 | 1018.5 |
| 20260505055808 | 74 | 229 | 4.0 | 10.0 | 0.00 | 0.00 | 0.00 | 41 | 1018.5 |
| 20260505055707 | 74 | 198 | 3.0 | 10.0 | 0.00 | 0.00 | 0.00 | 41 | 1018.5 |
| 20260505055601 | 74 | 187 | 2.0 | 8.0 | 0.00 | 0.00 | 0.00 | 41 | 1018.6 |
| 20260505055503 | 74 | 195 | 4.0 | 8.0 | 0.00 | 0.00 | 0.00 | 41 | 1018.5 |
| 20260505055402 | 74 | 234 | 5.0 | 8.0 | 0.00 | 0.00 | 0.00 | 42 | 1018.5 |
| 20260505055259 | 74 | 202 | 4.0 | 8.0 | 0.00 | 0.00 | 0.00 | 42 | 1018.4 |
| 20260505055158 | 74 | 221 | 3.0 | 8.0 | 0.00 | 0.00 | 0.00 | 43 | 1018.5 |
| 20260505055054 | 74 | 234 | 4.0 | 8.0 | 0.00 | 0.00 | 0.00 | 42 | 1018.4 |
| 20260505054954 | 74 | 254 | 4.0 | 8.0 | 0.00 | 0.00 | 0.00 | 43 | 1018.3 |
| 20260505054857 | 74 | 179 | 2.0 | 8.0 | 0.00 | 0.00 | 0.00 | 42 | 1018.4 |
| 20260505054753 | 74 | 234 | 2.0 | 8.0 | 0.00 | 0.00 | 0.00 | 42 | 1018.4 |
| 20260505054653 | 74 | 202 | 4.0 | 8.0 | 0.00 | 0.00 | 0.00 | 42 | 1018.4 |
| 20260505054549 | 74 | 238 | 3.0 | 8.0 | 0.00 | 0.00 | 0.00 | 42 | 1018.4 |
| 20260505054450 | 74 | 275 | 2.0 | 8.0 | 0.00 | 0.00 | 0.00 | 42 | 1018.3 |
| 20260505054349 | 74 | 240 | 4.0 | 8.0 | 0.00 | 0.00 | 0.00 | 42 | 1018.5 |
| 20260505054242 | 74 | 217 | 4.0 | 8.0 | 0.00 | 0.00 | 0.00 | 40 | 1018.4 |
| 20260505054139 | 74 | 156 | 3.0 | 6.0 | 0.00 | 0.00 | 0.00 | 41 | 1018.3 |
| 20260505054037 | 74 | 152 | 2.0 | 6.0 | 0.00 | 0.00 | 0.00 | 41 | 1018.4 |
| 20260505053943 | 74 | 230 | 2.0 | 6.0 | 0.00 | 0.00 | 0.00 | 43 | 1018.4 |
| 20260505053836 | 74 | 255 | 2.0 | 6.0 | 0.00 | 0.00 | 0.00 | 41 | 1018.5 |
| 20260505053737 | 74 | 252 | 2.0 | 6.0 | 0.00 | 0.00 | 0.00 | 41 | 1018.4 |
| 20260505053640 | 74 | 209 | 2.0 | 8.0 | 0.00 | 0.00 | 0.00 | 41 | 1018.4 |
| 20260505053537 | 74 | 196 | 2.0 | 8.0 | 0.00 | 0.00 | 0.00 | 42 | 1018.4 |
| 20260505053440 | 74 | 245 | 2.0 | 8.0 | 0.00 | 0.00 | 0.00 | 43 | 1018.4 |
| 20260505053337 | 74 | 236 | 3.0 | 8.0 | 0.00 | 0.00 | 0.00 | 43 | 1018.4 |
| 20260505053240 | 74 | 257 | 4.0 | 8.0 | 0.00 | 0.00 | 0.00 | 42 | 1018.5 |
| 20260505053136 | 74 | 222 | 3.0 | 8.0 | 0.00 | 0.00 | 0.00 | 43 | 1018.4 |
| 20260505053037 | 74 | 247 | 4.0 | 8.0 | 0.00 | 0.00 | 0.00 | 43 | 1018.4 |
| 20260505052938 | 74 | 241 | 4.0 | 8.0 | 0.00 | 0.00 | 0.00 | 43 | 1018.4 |
| 20260505052838 | 74 | 225 | 3.0 | 8.0 | 0.00 | 0.00 | 0.00 | 43 | 1018.3 |
| 20260505052737 | 74 | 268 | 3.0 | 8.0 | 0.00 | 0.00 | 0.00 | 43 | 1018.4 |
| 20260505052637 | 74 | 204 | 2.0 | 8.0 | 0.00 | 0.00 | 0.00 | 43 | 1018.3 |
| 20260505052536 | 74 | 231 | 2.0 | 8.0 | 0.00 | 0.00 | 0.00 | 44 | 1018.4 |
| 20260505052442 | 74 | 244 | 3.0 | 8.0 | 0.00 | 0.00 | 0.00 | 44 | 1018.4 |
| 20260505052339 | 74 | 254 | 4.0 | 8.0 | 0.00 | 0.00 | 0.00 | 44 | 1018.4 |
| 20260505052308 | 74 | 261 | 5.0 | 8.0 | 0.00 | 0.00 | 0.00 | 44 | 1018.4 |
| 20260505052137 | 74 | 220 | 4.0 | 8.0 | 0.00 | 0.00 | 0.00 | 44 | 1018.5 |
| 20260505052037 | 74 | 273 | 1.0 | 7.0 | 0.00 | 0.00 | 0.00 | 45 | 1018.4 |
| 20260505051938 | 74 | 260 | 0.0 | 7.0 | 0.00 | 0.00 | 0.00 | 44 | 1018.5 |
| 20260505051838 | 74 | 286 | 1.0 | 7.0 | 0.00 | 0.00 | 0.00 | 44 | 1018.3 |
| 20260505051737 | 74 | 286 | 3.0 | 7.0 | 0.00 | 0.00 | 0.00 | 43 | 1018.4 |
| 20260505051634 | 74 | 311 | 3.0 | 7.0 | 0.00 | 0.00 | 0.00 | 43 | 1018.3 |
| 20260505051524 | 74 | 301 | 4.0 | 7.0 | 0.00 | 0.00 | 0.00 | 44 | 1018.4 |
| 20260505051431 | 74 | 313 | 4.0 | 7.0 | 0.00 | 0.00 | 0.00 | 44 | 1018.4 |
| 20260505051317 | 74 | 274 | 1.0 | 7.0 | 0.00 | 0.00 | 0.00 | 43 | 1018.4 |
| 20260505051213 | 74 | 277 | 1.0 | 6.0 | 0.00 | 0.00 | 0.00 | 43 | 1018.3 |
| 20260505051016 | 75 | 227 | 2.0 | 7.0 | 0.00 | 0.00 | 0.00 | 44 | 1018.4 |
| 20260505050909 | 75 | 252 | 2.0 | 7.0 | 0.00 | 0.00 | 0.00 | 44 | 1018.4 |
| 20260505050810 | 74 | 247 | 2.0 | 7.0 | 0.00 | 0.00 | 0.00 | 45 | 1018.5 |
| 20260505050710 | 74 | 289 | 2.0 | 7.0 | 0.00 | 0.00 | 0.00 | 46 | 1018.4 |
| 20260505050510 | 74 | 304 | 2.0 | 7.0 | 0.00 | 0.00 | 0.00 | 46 | 1018.4 |
| 20260505050411 | 74 | 224 | 1.0 | 8.0 | 0.00 | 0.00 | 0.00 | 45 | 1018.4 |
| 20260505050308 | 74 | 292 | 2.0 | 8.0 | 0.00 | 0.00 | 0.00 | 44 | 1018.3 |
| 20260505050210 | 74 | 286 | 3.0 | 8.0 | 0.00 | 0.00 | 0.00 | 43 | 1018.3 |
| 20260505041657 | 74 | 329 | 4.0 | 8.0 | 0.00 | 0.00 | 0.00 | 44 | 1018.1 |
| 20260505041555 | 74 | 192 | 4.0 | 8.0 | 0.00 | 0.00 | 0.00 | 45 | 1018.1 |
| 20260505041451 | 74 | 247 | 4.0 | 7.0 | 0.00 | 0.00 | 0.00 | 45 | 1018.1 |
| 20260505041349 | 74 | 267 | 3.0 | 7.0 | 0.00 | 0.00 | 0.00 | 45 | 1018.1 |
| 20260505041246 | 74 | 263 | 4.0 | 7.0 | 0.00 | 0.00 | 0.00 | 44 | 1018.1 |
| 20260505041147 | 74 | 180 | 4.0 | 8.0 | 0.00 | 0.00 | 0.00 | 44 | 1018.0 |
| 20260505041044 | 74 | 245 | 2.0 | 8.0 | 0.00 | 0.00 | 0.00 | 45 | 1018.1 |
| 20260505040940 | 74 | 200 | 2.0 | 8.0 | 0.00 | 0.00 | 0.00 | 44 | 1018.0 |
| 20260505040839 | 74 | 190 | 4.0 | 8.0 | 0.00 | 0.00 | 0.00 | 45 | 1018.0 |
| 20260505040736 | 74 | 281 | 3.0 | 8.0 | 0.00 | 0.00 | 0.00 | 44 | 1018.0 |
| 20260505040635 | 74 | 197 | 2.0 | 8.0 | 0.00 | 0.00 | 0.00 | 46 | 1018.0 |
| 20260505040534 | 74 | 233 | 3.0 | 8.0 | 0.00 | 0.00 | 0.00 | 46 | 1018.1 |
| 20260505040434 | 73 | 256 | 4.0 | 8.0 | 0.00 | 0.00 | 0.00 | 45 | 1018.1 |
| 20260505040336 | 73 | 263 | 5.0 | 8.0 | 0.00 | 0.00 | 0.00 | 45 | 1018.0 |
| 20260505040236 | 73 | 289 | 5.0 | 8.0 | 0.00 | 0.00 | 0.00 | 45 | 1018.1 |
| 20260505040134 | 73 | 278 | 4.0 | 8.0 | 0.00 | 0.00 | 0.00 | 45 | 1018.2 |
| 20260505040033 | 74 | 199 | 3.0 | 8.0 | 0.00 | 0.00 | 0.00 | 44 | 1018.1 |
| 20260505035933 | 74 | 199 | 3.0 | 8.0 | 0.00 | 0.00 | 0.00 | 45 | 1018.0 |
| 20260505035834 | 74 | 229 | 4.0 | 8.0 | 0.00 | 0.00 | 0.00 | 45 | 1018.1 |
| 20260505035735 | 74 | 229 | 4.0 | 8.0 | 0.00 | 0.00 | 0.00 | 45 | 1018.0 |
| 20260505035637 | 74 | 214 | 4.0 | 8.0 | 0.00 | 0.00 | 0.00 | 45 | 1018.0 |
| 20260505035533 | 74 | 234 | 4.0 | 7.0 | 0.00 | 0.00 | 0.00 | 45 | 1018.0 |
| 20260505035436 | 74 | 241 | 4.0 | 10.0 | 0.00 | 0.00 | 0.00 | 45 | 1018.0 |
| 20260505035334 | 74 | 263 | 3.0 | 10.0 | 0.00 | 0.00 | 0.00 | 45 | 1018.0 |
| 20260505035235 | 74 | 234 | 3.0 | 10.0 | 0.00 | 0.00 | 0.00 | 44 | 1018.0 |
| 20260505035157 | 74 | 255 | 2.0 | 10.0 | 0.00 | 0.00 | 0.00 | 44 | 1018.0 |
| 20260505035036 | 74 | 280 | 2.0 | 10.0 | 0.00 | 0.00 | 0.00 | 45 | 1018.0 |
| 20260505034936 | 74 | 245 | 2.0 | 10.0 | 0.00 | 0.00 | 0.00 | 45 | 1018.1 |
| 20260505034834 | 74 | 209 | 3.0 | 10.0 | 0.00 | 0.00 | 0.00 | 44 | 1017.9 |
| 20260505034736 | 74 | 255 | 5.0 | 10.0 | 0.00 | 0.00 | 0.00 | 45 | 1017.9 |
| 20260505034635 | 74 | 275 | 6.0 | 10.0 | 0.00 | 0.00 | 0.00 | 44 | 1018.0 |
| 20260505034536 | 74 | 288 | 6.0 | 10.0 | 0.00 | 0.00 | 0.00 | 44 | 1018.0 |
| 20260505034435 | 74 | 242 | 6.0 | 10.0 | 0.00 | 0.00 | 0.00 | 44 | 1017.9 |
| 20260505034335 | 74 | 300 | 4.0 | 10.0 | 0.00 | 0.00 | 0.00 | 45 | 1017.9 |
| 20260505034235 | 74 | 296 | 5.0 | 10.0 | 0.00 | 0.00 | 0.00 | 44 | 1018.1 |
| 20260505034133 | 74 | 261 | 6.0 | 10.0 | 0.00 | 0.00 | 0.00 | 44 | 1018.0 |
| 20260505034025 | 74 | 271 | 4.0 | 10.0 | 0.00 | 0.00 | 0.00 | 44 | 1018.0 |
| 20260505033924 | 74 | 260 | 4.0 | 10.0 | 0.00 | 0.00 | 0.00 | 44 | 1018.1 |
| 20260505033824 | 74 | 252 | 5.0 | 10.0 | 0.00 | 0.00 | 0.00 | 44 | 1018.1 |
| 20260505033720 | 74 | 302 | 6.0 | 10.0 | 0.00 | 0.00 | 0.00 | 45 | 1018.1 |
| 20260505033520 | 74 | 278 | 4.0 | 9.0 | 0.00 | 0.00 | 0.00 | 45 | 1018.1 |
| 20260505033453 | 74 | 229 | 5.0 | 9.0 | 0.00 | 0.00 | 0.00 | 45 | 1018.2 |
| 20260505033428 | 74 | 215 | 5.0 | 9.0 | 0.00 | 0.00 | 0.00 | 45 | 1018.2 |
| 20260505033355 | 74 | 248 | 6.0 | 10.0 | 0.00 | 0.00 | 0.00 | 45 | 1018.2 |
| 20260505033323 | 74 | 261 | 4.0 | 11.0 | 0.00 | 0.01 | 0.00 | 45 | 1018.3 |
| 20260505033016 | 74 | 261 | 3.0 | 11.0 | 0.00 | 0.02 | 0.00 | 46 | 1018.2 |
| 20260505032914 | 74 | 284 | 2.0 | 11.0 | 0.00 | 0.02 | 0.00 | 46 | 1018.2 |
| 20260505032813 | 74 | 265 | 3.0 | 11.0 | 0.00 | 0.02 | 0.00 | 46 | 1018.1 |
| 20260505032712 | 74 | 246 | 4.0 | 11.0 | 0.00 | 0.02 | 0.00 | 45 | 1018.3 |
| 20260505032536 | 74 | 253 | 6.0 | 11.0 | 0.00 | 0.02 | 0.00 | 46 | 1018.3 |
| 20260505032507 | 74 | 273 | 6.0 | 11.0 | 0.00 | 0.02 | 0.00 | 45 | 1018.2 |
| 20260505032444 | 74 | 271 | 4.0 | 11.0 | 0.00 | 0.02 | 0.00 | 46 | 1018.3 |
| 20260505032408 | 74 | 270 | 2.0 | 11.0 | 0.00 | 0.02 | 0.00 | 46 | 1018.3 |
| 20260505032341 | 74 | 225 | 3.0 | 11.0 | 0.00 | 0.02 | 0.00 | 47 | 1018.3 |
| 20260505032014 | 74 | 203 | 6.0 | 11.0 | 0.00 | 0.02 | 0.00 | 46 | 1018.3 |
| 20260505031944 | 74 | 268 | 7.0 | 11.0 | 0.00 | 0.02 | 0.00 | 45 | 1018.3 |
| 20260505031925 | 74 | 262 | 6.0 | 11.0 | 0.00 | 0.02 | 0.00 | 46 | 1018.3 |
| 20260505031851 | 74 | 277 | 7.0 | 11.0 | 0.00 | 0.02 | 0.00 | 47 | 1018.3 |
| 20260505031823 | 73 | 256 | 5.0 | 11.0 | 0.00 | 0.02 | 0.00 | 47 | 1018.2 |
| 20260505031506 | 73 | 260 | 2.0 | 11.0 | 0.00 | 0.02 | 0.00 | 46 | 1018.3 |
| 20260505031405 | 73 | 279 | 3.0 | 9.0 | 0.00 | 0.02 | 0.00 | 46 | 1018.3 |
| 20260505031311 | 73 | 259 | 4.0 | 9.0 | 0.00 | 0.02 | 0.00 | 47 | 1018.3 |
| 20260505031205 | 73 | 275 | 5.0 | 9.0 | 0.00 | 0.02 | 0.00 | 46 | 1018.4 |
| 20260505031108 | 73 | 218 | 3.0 | 11.0 | 0.00 | 0.02 | 0.00 | 47 | 1018.3 |
| 20260505031006 | 73 | 252 | 4.0 | 16.0 | 0.00 | 0.02 | 0.00 | 48 | 1018.3 |
| 20260505030935 | 72 | 216 | 4.0 | 16.0 | 0.00 | 0.02 | 0.00 | 48 | 1018.4 |
| 20260505030914 | 72 | 227 | 2.0 | 16.0 | 0.00 | 0.02 | 0.00 | 47 | 1018.5 |
| 20260505030840 | 72 | 265 | 2.0 | 16.0 | 0.00 | 0.02 | 0.00 | 46 | 1018.5 |
| 20260505030555 | 72 | 238 | 3.0 | 16.0 | 0.00 | 0.02 | 0.00 | 47 | 1018.4 |
| 20260505030451 | 72 | 210 | 4.0 | 16.0 | 0.00 | 0.02 | 0.00 | 47 | 1018.6 |
| 20260505030345 | 72 | 234 | 5.0 | 16.0 | 0.00 | 0.02 | 0.00 | 47 | 1018.4 |
| 20260505030250 | 72 | 256 | 8.0 | 16.0 | 0.00 | 0.02 | 0.00 | 47 | 1018.4 |
| 20260505030142 | 72 | 271 | 10.0 | 16.0 | 0.00 | 0.02 | 0.00 | 47 | 1018.4 |
| 20260505030040 | 72 | 295 | 9.0 | 16.0 | 0.00 | 0.02 | 0.00 | 47 | 1018.4 |
| 20260505025940 | 72 | 279 | 9.0 | 14.0 | 0.00 | 0.02 | 0.00 | 47 | 1018.3 |
| 20260505025843 | 72 | 281 | 9.0 | 14.0 | 0.00 | 0.02 | 0.00 | 47 | 1018.4 |
| 20260505025751 | 72 | 288 | 7.0 | 14.0 | 0.00 | 0.02 | 0.00 | 47 | 1018.4 |
| 20260505025643 | 72 | 311 | 6.0 | 14.0 | 0.00 | 0.02 | 0.00 | 47 | 1018.4 |
| 20260505025542 | 72 | 267 | 6.0 | 10.0 | 0.00 | 0.02 | 0.00 | 46 | 1018.4 |
| 20260505025510 | 72 | 246 | 5.0 | 11.0 | 0.00 | 0.02 | 0.00 | 47 | 1018.5 |
| 20260505025445 | 72 | 230 | 6.0 | 11.0 | 0.00 | 0.02 | 0.00 | 47 | 1018.6 |
| 20260505025426 | 72 | 250 | 6.0 | 12.0 | 0.00 | 0.02 | 0.00 | 47 | 1018.5 |
| 20260505025352 | 72 | 263 | 5.0 | 12.0 | 0.00 | 0.02 | 0.00 | 47 | 1018.5 |
| 20260505025039 | 72 | 248 | 6.0 | 12.0 | 0.00 | 0.02 | 0.00 | 48 | 1018.5 |
| 20260505024942 | 72 | 277 | 6.0 | 13.0 | 0.00 | 0.02 | 0.00 | 47 | 1018.5 |
| 20260505024840 | 72 | 272 | 6.0 | 13.0 | 0.00 | 0.02 | 0.00 | 48 | 1018.5 |
| 20260505024741 | 72 | 244 | 6.0 | 17.0 | 0.00 | 0.02 | 0.00 | 48 | 1018.5 |
| 20260505024640 | 72 | 243 | 8.0 | 17.0 | 0.00 | 0.02 | 0.00 | 49 | 1018.6 |
| 20260505024540 | 72 | 245 | 7.0 | 17.0 | 0.00 | 0.02 | 0.00 | 49 | 1018.6 |
| 20260505024457 | 72 | 312 | 6.0 | 17.0 | 0.00 | 0.02 | 0.00 | 49 | 1018.6 |
| 20260505024434 | 71 | 292 | 6.0 | 17.0 | 0.00 | 0.02 | 0.00 | 49 | 1018.6 |
| 20260505024414 | 71 | 254 | 8.0 | 17.0 | 0.00 | 0.02 | 0.00 | 48 | 1018.5 |
| 20260505024342 | 71 | 230 | 10.0 | 17.0 | 0.00 | 0.02 | 0.00 | 47 | 1018.7 |
| 20260505024038 | 72 | 277 | 9.0 | 17.0 | 0.00 | 0.02 | 0.00 | 48 | 1018.7 |
| 20260505023938 | 72 | 268 | 11.0 | 17.0 | 0.00 | 0.02 | 0.00 | 48 | 1018.6 |
| 20260505023840 | 72 | 261 | 10.0 | 17.0 | 0.00 | 0.02 | 0.00 | 48 | 1018.6 |
| 20260505023732 | 72 | 254 | 7.0 | 14.0 | 0.00 | 0.02 | 0.00 | 48 | 1018.7 |
| 20260505023635 | 72 | 312 | 6.0 | 13.0 | 0.00 | 0.02 | 0.00 | 49 | 1018.6 |
| 20260505023535 | 72 | 254 | 5.0 | 15.0 | 0.00 | 0.02 | 0.00 | 49 | 1018.6 |
| 20260505023422 | 72 | 253 | 6.0 | 15.0 | 0.00 | 0.02 | 0.00 | 49 | 1018.6 |
| 20260505023317 | 72 | 263 | 8.0 | 15.0 | 0.00 | 0.03 | 0.00 | 49 | 1018.7 |
| 20260505023222 | 72 | 256 | 5.0 | 15.0 | 0.00 | 0.03 | 0.00 | 50 | 1018.7 |
| 20260505023121 | 72 | 243 | 5.0 | 15.0 | 0.00 | 0.03 | 0.00 | 50 | 1018.6 |
| 20260505023011 | 71 | 243 | 6.0 | 15.0 | 0.00 | 0.03 | 0.00 | 50 | 1018.7 |
| 20260505022911 | 71 | 275 | 9.0 | 15.0 | 0.00 | 0.03 | 0.00 | 49 | 1018.7 |
| 20260505022809 | 71 | 254 | 9.0 | 15.0 | 0.00 | 0.03 | 0.00 | 49 | 1018.7 |
| 20260505022713 | 71 | 266 | 6.0 | 15.0 | 0.00 | 0.04 | 0.00 | 49 | 1018.7 |
| 20260505022509 | 71 | 292 | 5.0 | 12.0 | 0.00 | 0.04 | 0.00 | 50 | 1018.6 |
| 20260505022410 | 71 | 264 | 7.0 | 12.0 | 0.00 | 0.05 | 0.00 | 50 | 1018.7 |
| 20260505022309 | 71 | 281 | 8.0 | 12.0 | 0.00 | 0.05 | 0.00 | 50 | 1018.7 |
| 20260505022226 | 71 | 263 | 7.0 | 12.0 | 0.00 | 0.05 | 0.00 | 50 | 1018.7 |
| 20260505022012 | 71 | 288 | 8.0 | 12.0 | 0.00 | 0.06 | 0.00 | 50 | 1018.8 |
| 20260505021910 | 71 | 266 | 7.0 | 16.0 | 0.00 | 0.06 | 0.00 | 49 | 1018.7 |
| 20260505021808 | 71 | 293 | 6.0 | 16.0 | 0.00 | 0.06 | 0.00 | 51 | 1018.7 |
| 20260505021716 | 71 | 259 | 7.0 | 16.0 | 0.00 | 0.06 | 0.00 | 50 | 1018.7 |
| 20260505021510 | 71 | 281 | 7.0 | 16.0 | 0.00 | 0.06 | 0.00 | 50 | 1018.7 |
| 20260505021409 | 71 | 257 | 6.0 | 16.0 | 0.00 | 0.06 | 0.00 | 50 | 1018.8 |
| 20260505021309 | 71 | 268 | 5.0 | 16.0 | 0.00 | 0.06 | 0.00 | 50 | 1018.9 |
| 20260505021220 | 71 | 323 | 6.0 | 16.0 | 0.00 | 0.06 | 0.00 | 50 | 1018.8 |
| 20260505021010 | 71 | 253 | 6.0 | 16.0 | 0.00 | 0.07 | 0.00 | 50 | 1018.9 |
| 20260505020908 | 71 | 285 | 6.0 | 14.0 | 0.00 | 0.07 | 0.00 | 50 | 1018.9 |
| 20260505020809 | 71 | 250 | 7.0 | 14.0 | 0.00 | 0.07 | 0.00 | 50 | 1018.8 |
| 20260505020713 | 71 | 252 | 7.0 | 14.0 | 0.00 | 0.08 | 0.00 | 51 | 1018.8 |
| 20260505020509 | 71 | 257 | 5.0 | 14.0 | 0.00 | 0.08 | 0.00 | 50 | 1018.8 |
| 20260505020408 | 71 | 273 | 7.0 | 14.0 | 0.00 | 0.08 | 0.00 | 51 | 1018.8 |
| 20260505020309 | 71 | 301 | 8.0 | 14.0 | 0.00 | 0.08 | 0.00 | 51 | 1018.8 |
| 20260505020221 | 71 | 284 | 8.0 | 14.0 | 0.00 | 0.08 | 0.00 | 51 | 1018.8 |
| 20260505020009 | 71 | 291 | 8.0 | 12.0 | 0.00 | 0.08 | 0.00 | 51 | 1018.8 |
| 20260505015910 | 71 | 217 | 9.0 | 13.0 | 0.00 | 0.08 | 0.00 | 52 | 1018.8 |
| 20260505015809 | 71 | 266 | 8.0 | 13.0 | 0.00 | 0.08 | 0.00 | 51 | 1018.8 |
| 20260505015714 | 71 | 274 | 8.0 | 13.0 | 0.00 | 0.08 | 0.00 | 51 | 1018.8 |
| 20260505015510 | 71 | 310 | 7.0 | 13.0 | 0.00 | 0.08 | 0.00 | 52 | 1018.9 |
| 20260505015409 | 71 | 271 | 5.0 | 13.0 | 0.00 | 0.08 | 0.00 | 51 | 1018.8 |
| 20260505015310 | 71 | 287 | 6.0 | 13.0 | 0.00 | 0.08 | 0.00 | 51 | 1018.9 |
| 20260505015212 | 71 | 257 | 7.0 | 13.0 | 0.00 | 0.08 | 0.00 | 51 | 1018.9 |
| 20260505015028 | 71 | 281 | 8.0 | 13.0 | 0.00 | 0.08 | 0.00 | 52 | 1018.9 |
| 20260505014912 | 71 | 269 | 7.0 | 13.0 | 0.00 | 0.08 | 0.00 | 52 | 1019.0 |
| 20260505014811 | 71 | 252 | 6.0 | 14.0 | 0.00 | 0.08 | 0.00 | 52 | 1019.1 |
| 20260505014711 | 71 | 309 | 7.0 | 14.0 | 0.00 | 0.08 | 0.00 | 53 | 1019.0 |
| 20260505014521 | 70 | 286 | 5.0 | 14.0 | 0.00 | 0.09 | 0.00 | 53 | 1019.1 |
| 20260505014457 | 70 | 280 | 6.0 | 14.0 | 0.00 | 0.09 | 0.00 | 53 | 1019.1 |
| 20260505014434 | 70 | 244 | 6.0 | 14.0 | 0.00 | 0.09 | 0.00 | 53 | 1019.1 |
| 20260505014413 | 70 | 285 | 6.0 | 14.0 | 0.00 | 0.09 | 0.00 | 53 | 1019.2 |
| 20260505014324 | 70 | 277 | 8.0 | 14.0 | 0.00 | 0.09 | 0.00 | 53 | 1019.2 |
| 20260505014009 | 70 | 242 | 7.0 | 16.0 | 0.00 | 0.09 | 0.00 | 53 | 1019.2 |
| 20260505013912 | 70 | 265 | 8.0 | 16.0 | 0.00 | 0.09 | 0.00 | 53 | 1019.2 |
| 20260505013808 | 70 | 318 | 8.0 | 16.0 | 0.00 | 0.09 | 0.00 | 53 | 1019.2 |
| 20260505013711 | 70 | 284 | 7.0 | 16.0 | 0.00 | 0.09 | 0.00 | 54 | 1019.2 |
| 20260505013510 | 70 | 261 | 7.0 | 16.0 | 0.00 | 0.09 | 0.00 | 55 | 1019.3 |
| 20260505013410 | 70 | 300 | 6.0 | 16.0 | 0.00 | 0.09 | 0.00 | 56 | 1019.3 |
| 20260505013309 | 69 | 269 | 9.0 | 16.0 | 0.00 | 0.09 | 0.00 | 55 | 1019.3 |
| 20260505013215 | 69 | 238 | 10.0 | 16.0 | 0.00 | 0.09 | 0.00 | 55 | 1019.3 |
| 20260505013010 | 69 | 267 | 8.0 | 17.0 | 0.00 | 0.09 | 0.00 | 56 | 1019.4 |
| 20260505012910 | 69 | 257 | 10.0 | 17.0 | 0.00 | 0.09 | 0.00 | 56 | 1019.3 |
| 20260505012811 | 69 | 275 | 8.0 | 17.0 | 0.00 | 0.09 | 0.00 | 56 | 1019.3 |
| 20260505012520 | 69 | 250 | 11.0 | 17.0 | 0.00 | 0.09 | 0.00 | 56 | 1019.4 |
| 20260505012459 | 69 | 268 | 11.0 | 17.0 | 0.00 | 0.09 | 0.00 | 56 | 1019.4 |
| 20260505012435 | 69 | 268 | 9.0 | 17.0 | 0.00 | 0.09 | 0.00 | 55 | 1019.4 |
| 20260505012415 | 69 | 293 | 7.0 | 17.0 | 0.00 | 0.10 | 0.00 | 55 | 1019.4 |
| 20260505012322 | 69 | 289 | 6.0 | 15.0 | 0.00 | 0.10 | 0.00 | 56 | 1019.4 |
| 20260505012009 | 69 | 253 | 8.0 | 15.0 | 0.00 | 0.10 | 0.00 | 56 | 1019.3 |
| 20260505011908 | 69 | 277 | 8.0 | 15.0 | 0.00 | 0.10 | 0.00 | 56 | 1019.3 |
| 20260505011813 | 69 | 300 | 6.0 | 15.0 | 0.00 | 0.10 | 0.00 | 57 | 1019.2 |
| 20260505011710 | 69 | 263 | 8.0 | 15.0 | 0.00 | 0.10 | 0.00 | 57 | 1019.3 |
| 20260505011511 | 69 | 263 | 8.0 | 15.0 | 0.00 | 0.10 | 0.00 | 57 | 1019.3 |
| 20260505011411 | 69 | 259 | 7.0 | 14.0 | 0.00 | 0.10 | 0.00 | 57 | 1019.3 |
| 20260505011305 | 69 | 267 | 5.0 | 14.0 | 0.00 | 0.10 | 0.00 | 57 | 1019.4 |
| 20260505011205 | 69 | 278 | 7.0 | 14.0 | 0.00 | 0.10 | 0.00 | 58 | 1019.5 |
| 20260505011102 | 68 | 248 | 9.0 | 15.0 | 0.00 | 0.10 | 0.00 | 58 | 1019.3 |
| 20260505011002 | 68 | 261 | 10.0 | 15.0 | 0.00 | 0.11 | 0.00 | 57 | 1019.3 |
| 20260505010857 | 68 | 296 | 9.0 | 15.0 | 0.00 | 0.11 | 0.00 | 57 | 1019.4 |
| 20260505010758 | 68 | 298 | 7.0 | 15.0 | 0.00 | 0.11 | 0.00 | 57 | 1019.4 |
| 20260505010653 | 68 | 274 | 8.0 | 15.0 | 0.00 | 0.11 | 0.00 | 57 | 1019.4 |
| 20260505010551 | 68 | 265 | 8.0 | 15.0 | 0.00 | 0.11 | 0.00 | 57 | 1019.5 |
| 20260505010452 | 68 | 273 | 7.0 | 15.0 | 0.00 | 0.11 | 0.00 | 57 | 1019.4 |
| 20260505010348 | 68 | 290 | 9.0 | 15.0 | 0.00 | 0.11 | 0.00 | 58 | 1019.3 |
| 20260505010248 | 68 | 286 | 9.0 | 15.0 | 0.00 | 0.11 | 0.00 | 57 | 1019.4 |
| 20260505010145 | 68 | 277 | 6.0 | 15.0 | 0.00 | 0.11 | 0.00 | 58 | 1019.4 |
| 20260505010042 | 68 | 257 | 6.0 | 14.0 | 0.00 | 0.11 | 0.00 | 58 | 1019.5 |
| 20260505005939 | 68 | 261 | 7.0 | 16.0 | 0.00 | 0.11 | 0.00 | 58 | 1019.5 |
| 20260505005837 | 68 | 272 | 7.0 | 16.0 | 0.00 | 0.11 | 0.00 | 58 | 1019.6 |
| 20260505005737 | 68 | 260 | 6.0 | 16.0 | 0.00 | 0.11 | 0.00 | 58 | 1019.6 |
| 20260505005639 | 68 | 271 | 8.0 | 17.0 | 0.00 | 0.11 | 0.00 | 57 | 1019.6 |
| 20260505005540 | 68 | 242 | 8.0 | 17.0 | 0.00 | 0.11 | 0.00 | 57 | 1019.6 |
| 20260505005438 | 68 | 277 | 8.0 | 17.0 | 0.00 | 0.11 | 0.00 | 57 | 1019.7 |
| 20260505005338 | 68 | 238 | 10.0 | 17.0 | 0.00 | 0.11 | 0.00 | 57 | 1019.7 |
| 20260505005240 | 68 | 275 | 10.0 | 17.0 | 0.00 | 0.11 | 0.00 | 57 | 1019.7 |
| 20260505005139 | 68 | 284 | 10.0 | 17.0 | 0.00 | 0.11 | 0.00 | 57 | 1019.7 |
| 20260505004949 | 67 | 254 | 9.0 | 17.0 | 0.00 | 0.11 | 0.00 | 58 | 1019.7 |
| 20260505004838 | 67 | 289 | 9.0 | 17.0 | 0.00 | 0.11 | 0.00 | 58 | 1019.8 |
| 20260505004737 | 67 | 255 | 9.0 | 17.0 | 0.00 | 0.11 | 0.00 | 58 | 1019.7 |
| 20260505004539 | 67 | 296 | 7.0 | 16.0 | 0.00 | 0.11 | 0.00 | 58 | 1019.7 |
| 20260505004449 | 67 | 255 | 7.0 | 16.0 | 0.00 | 0.11 | 0.00 | 58 | 1019.7 |
| 20260505004426 | 67 | 249 | 9.0 | 16.0 | 0.00 | 0.11 | 0.00 | 58 | 1019.8 |
| 20260505004407 | 67 | 238 | 9.0 | 16.0 | 0.00 | 0.11 | 0.00 | 58 | 1019.7 |
| 20260505004335 | 67 | 259 | 9.0 | 16.0 | 0.00 | 0.11 | 0.00 | 58 | 1019.8 |
| 20260505004037 | 67 | 274 | 10.0 | 16.0 | 0.00 | 0.11 | 0.00 | 58 | 1019.8 |
| 20260505003934 | 67 | 267 | 9.0 | 16.0 | 0.00 | 0.11 | 0.00 | 58 | 1019.8 |
| 20260505003835 | 67 | 252 | 9.0 | 16.0 | 0.00 | 0.11 | 0.00 | 58 | 1019.8 |
| 20260505003728 | 67 | 271 | 10.0 | 16.0 | 0.00 | 0.11 | 0.00 | 58 | 1019.6 |
| 20260505003628 | 67 | 257 | 9.0 | 16.0 | 0.00 | 0.11 | 0.00 | 57 | 1019.6 |
| 20260505003525 | 67 | 272 | 8.0 | 15.0 | 0.00 | 0.11 | 0.00 | 58 | 1019.6 |
| 20260505003422 | 67 | 272 | 7.0 | 15.0 | 0.00 | 0.11 | 0.00 | 58 | 1019.8 |
| 20260505003319 | 67 | 259 | 8.0 | 15.0 | 0.00 | 0.11 | 0.00 | 57 | 1019.8 |
| 20260505003223 | 67 | 307 | 9.0 | 15.0 | 0.00 | 0.11 | 0.00 | 57 | 1020.0 |
| 20260505003126 | 67 | 247 | 8.0 | 15.0 | 0.00 | 0.11 | 0.00 | 57 | 1020.0 |
| 20260505003017 | 67 | 263 | 7.0 | 15.0 | 0.00 | 0.11 | 0.00 | 58 | 1019.9 |
| 20260505002912 | 67 | 304 | 9.0 | 15.0 | 0.00 | 0.11 | 0.00 | 57 | 1020.0 |
| 20260505002810 | 67 | 238 | 8.0 | 15.0 | 0.00 | 0.11 | 0.00 | 57 | 1019.9 |
| 20260505002712 | 67 | 239 | 6.0 | 14.0 | 0.00 | 0.11 | 0.00 | 58 | 1019.9 |
| 20260505002510 | 67 | 218 | 7.0 | 13.0 | 0.00 | 0.11 | 0.00 | 59 | 1019.8 |
| 20260505002411 | 67 | 208 | 7.0 | 13.0 | 0.00 | 0.11 | 0.00 | 58 | 1020.0 |
| 20260505002311 | 67 | 265 | 6.0 | 13.0 | 0.00 | 0.11 | 0.00 | 58 | 1019.9 |
| 20260505002215 | 67 | 286 | 6.0 | 13.0 | 0.00 | 0.11 | 0.00 | 59 | 1019.8 |
| 20260505002009 | 67 | 281 | 6.0 | 13.0 | 0.00 | 0.11 | 0.00 | 59 | 1019.9 |
| 20260505001934 | 67 | 250 | 8.0 | 13.0 | 0.00 | 0.11 | 0.00 | 58 | 1019.8 |
| 20260505001811 | 67 | 290 | 8.0 | 13.0 | 0.00 | 0.11 | 0.00 | 58 | 1019.7 |
| 20260505001713 | 67 | 298 | 6.0 | 13.0 | 0.00 | 0.11 | 0.00 | 59 | 1019.9 |
| 20260505001618 | 67 | 245 | 6.0 | 13.0 | 0.00 | 0.11 | 0.00 | 59 | 1019.9 |
| 20260505001509 | 67 | 246 | 8.0 | 13.0 | 0.00 | 0.11 | 0.00 | 58 | 1019.9 |
| 20260505001410 | 67 | 244 | 9.0 | 13.0 | 0.00 | 0.11 | 0.00 | 57 | 1019.9 |
| 20260505001310 | 67 | 213 | 7.0 | 13.0 | 0.00 | 0.11 | 0.00 | 60 | 1020.0 |
| 20260505001212 | 67 | 244 | 6.0 | 12.0 | 0.00 | 0.11 | 0.00 | 60 | 1020.0 |
| 20260505001111 | 67 | 240 | 4.0 | 12.0 | 0.00 | 0.11 | 0.00 | 60 | 1019.9 |
| 20260505001009 | 67 | 283 | 5.0 | 12.0 | 0.00 | 0.11 | 0.00 | 61 | 1019.9 |
| 20260505000909 | 66 | 255 | 6.0 | 12.0 | 0.00 | 0.11 | 0.00 | 60 | 1020.0 |
| 20260505000838 | 66 | 250 | 6.0 | 15.0 | 0.00 | 0.11 | 0.00 | 60 | 1019.9 |
| 20260505000812 | 66 | 257 | 6.0 | 15.0 | 0.00 | 0.11 | 0.00 | 61 | 1020.0 |
| 20260505000736 | 66 | 252 | 7.0 | 15.0 | 0.00 | 0.11 | 0.00 | 60 | 1020.0 |
| 20260505000659 | 66 | 272 | 8.0 | 15.0 | 0.00 | 0.11 | 0.00 | 60 | 1019.9 |
| 20260505000424 | 66 | 244 | 9.0 | 15.0 | 0.00 | 0.11 | 0.00 | 60 | 1020.0 |
| 20260505000359 | 66 | 294 | 8.0 | 16.0 | 0.00 | 0.11 | 0.00 | 60 | 1019.9 |
| 20260505000330 | 66 | 266 | 8.0 | 16.0 | 0.00 | 0.11 | 0.00 | 60 | 1019.9 |
| 20260505000050 | 66 | 248 | 8.0 | 16.0 | 0.00 | 0.11 | 0.00 | 60 | 1020.0 |
| 20260504235947 | 66 | 267 | 7.0 | 16.0 | 0.00 | 0.11 | 0.00 | 60 | 1019.9 |
| 20260504235845 | 66 | 300 | 5.0 | 16.0 | 0.00 | 0.11 | 0.00 | 60 | 1019.9 |
| 20260504235746 | 66 | 306 | 6.0 | 16.0 | 0.00 | 0.11 | 0.00 | 60 | 1020.0 |
| 20260504235637 | 66 | 219 | 9.0 | 16.0 | 0.00 | 0.11 | 0.00 | 60 | 1020.0 |
| 20260504235547 | 66 | 286 | 10.0 | 16.0 | 0.00 | 0.11 | 0.00 | 59 | 1019.9 |
| 20260504235437 | 66 | 271 | 9.0 | 16.0 | 0.00 | 0.11 | 0.00 | 60 | 1019.9 |
| 20260504235338 | 66 | 269 | 6.0 | 16.0 | 0.00 | 0.11 | 0.00 | 60 | 1020.0 |
| 20260504235237 | 66 | 234 | 7.0 | 16.0 | 0.00 | 0.11 | 0.00 | 60 | 1019.9 |
| 20260504235137 | 66 | 264 | 8.0 | 16.0 | 0.00 | 0.11 | 0.00 | 60 | 1020.0 |
| 20260504235039 | 66 | 251 | 8.0 | 16.0 | 0.00 | 0.11 | 0.00 | 60 | 1019.9 |
| 20260504234938 | 65 | 261 | 6.0 | 16.0 | 0.00 | 0.11 | 0.00 | 60 | 1019.9 |
| 20260504234837 | 65 | 277 | 7.0 | 16.0 | 0.00 | 0.11 | 0.00 | 60 | 1020.0 |
| 20260504234737 | 65 | 273 | 10.0 | 16.0 | 0.00 | 0.11 | 0.00 | 59 | 1020.0 |
| 20260504234639 | 66 | 276 | 8.0 | 16.0 | 0.00 | 0.11 | 0.00 | 60 | 1020.0 |
| 20260504234539 | 66 | 277 | 8.0 | 16.0 | 0.00 | 0.11 | 0.00 | 60 | 1020.2 |
| 20260504234434 | 66 | 265 | 8.0 | 16.0 | 0.00 | 0.11 | 0.00 | 60 | 1020.0 |
| 20260504234333 | 66 | 259 | 7.0 | 15.0 | 0.00 | 0.11 | 0.00 | 60 | 1020.2 |
| 20260504234233 | 66 | 246 | 7.0 | 15.0 | 0.00 | 0.11 | 0.00 | 60 | 1020.2 |
| 20260504234132 | 65 | 259 | 6.0 | 15.0 | 0.00 | 0.11 | 0.00 | 60 | 1020.2 |
| 20260504234032 | 66 | 217 | 5.0 | 15.0 | 0.00 | 0.11 | 0.00 | 60 | 1020.2 |
| 20260504233929 | 66 | 271 | 5.0 | 15.0 | 0.00 | 0.11 | 0.00 | 60 | 1020.2 |
| 20260504233833 | 65 | 241 | 6.0 | 15.0 | 0.00 | 0.11 | 0.00 | 61 | 1020.3 |
| 20260504233727 | 65 | 249 | 8.0 | 15.0 | 0.00 | 0.11 | 0.00 | 60 | 1020.2 |
| 20260504233628 | 65 | 285 | 8.0 | 15.0 | 0.00 | 0.11 | 0.00 | 60 | 1020.2 |
| 20260504233532 | 66 | 254 | 5.0 | 14.0 | 0.00 | 0.11 | 0.00 | 60 | 1020.3 |
| 20260504233425 | 66 | 265 | 4.0 | 14.0 | 0.00 | 0.11 | 0.00 | 61 | 1020.2 |
| 20260504233323 | 66 | 249 | 5.0 | 10.0 | 0.00 | 0.11 | 0.00 | 61 | 1020.3 |
| 20260504233225 | 66 | 265 | 4.0 | 10.0 | 0.00 | 0.11 | 0.00 | 61 | 1020.3 |
| 20260504233123 | 65 | 260 | 4.0 | 13.0 | 0.00 | 0.11 | 0.00 | 61 | 1020.3 |
| 20260504233030 | 65 | 271 | 3.0 | 13.0 | 0.00 | 0.11 | 0.00 | 61 | 1020.3 |
| 20260504232916 | 65 | 227 | 5.0 | 13.0 | 0.00 | 0.11 | 0.00 | 61 | 1020.3 |
| 20260504232816 | 65 | 267 | 5.0 | 13.0 | 0.00 | 0.11 | 0.00 | 61 | 1020.2 |
| 20260504232716 | 65 | 240 | 4.0 | 13.0 | 0.00 | 0.11 | 0.00 | 61 | 1020.3 |
| 20260504232610 | 65 | 258 | 4.0 | 13.0 | 0.00 | 0.11 | 0.00 | 62 | 1020.4 |
| 20260504232511 | 65 | 259 | 5.0 | 13.0 | 0.00 | 0.11 | 0.00 | 62 | 1020.3 |
| 20260504232410 | 65 | 272 | 7.0 | 13.0 | 0.00 | 0.11 | 0.00 | 62 | 1020.3 |
| 20260504232309 | 65 | 261 | 6.0 | 13.0 | 0.00 | 0.11 | 0.00 | 61 | 1020.3 |
| 20260504232213 | 65 | 267 | 6.0 | 13.0 | 0.00 | 0.11 | 0.00 | 61 | 1020.2 |
| 20260504232112 | 65 | 262 | 6.0 | 12.0 | 0.00 | 0.11 | 0.00 | 61 | 1020.2 |
| 20260504232011 | 65 | 274 | 5.0 | 12.0 | 0.00 | 0.11 | 0.00 | 61 | 1020.2 |
| 20260504231913 | 65 | 275 | 6.0 | 12.0 | 0.00 | 0.11 | 0.00 | 61 | 1020.3 |
| 20260504231809 | 65 | 267 | 7.0 | 12.0 | 0.00 | 0.11 | 0.00 | 61 | 1020.3 |
| 20260504231711 | 65 | 256 | 8.0 | 12.0 | 0.00 | 0.11 | 0.00 | 61 | 1020.3 |
| 20260504231609 | 65 | 274 | 8.0 | 12.0 | 0.00 | 0.11 | 0.00 | 61 | 1020.4 |
| 20260504231509 | 65 | 270 | 7.0 | 12.0 | 0.00 | 0.11 | 0.00 | 62 | 1020.3 |
| 20260504231409 | 65 | 276 | 7.0 | 11.0 | 0.00 | 0.11 | 0.00 | 62 | 1020.3 |
| 20260504231309 | 64 | 271 | 6.0 | 11.0 | 0.00 | 0.11 | 0.00 | 62 | 1020.3 |
| 20260504231213 | 65 | 262 | 6.0 | 11.0 | 0.00 | 0.11 | 0.00 | 62 | 1020.4 |
| 20260504231110 | 65 | 252 | 6.0 | 12.0 | 0.00 | 0.11 | 0.00 | 62 | 1020.3 |
| 20260504231014 | 65 | 255 | 6.0 | 12.0 | 0.00 | 0.11 | 0.00 | 62 | 1020.3 |
| 20260504230909 | 65 | 294 | 5.0 | 12.0 | 0.00 | 0.11 | 0.00 | 62 | 1020.2 |
| 20260504230809 | 65 | 284 | 4.0 | 12.0 | 0.00 | 0.11 | 0.00 | 63 | 1020.3 |
| 20260504230710 | 65 | 254 | 5.0 | 13.0 | 0.00 | 0.11 | 0.00 | 63 | 1020.2 |
| 20260504230609 | 64 | 281 | 6.0 | 13.0 | 0.00 | 0.11 | 0.00 | 62 | 1020.2 |
| 20260504230519 | 64 | 249 | 5.0 | 13.0 | 0.00 | 0.11 | 0.00 | 62 | 1020.1 |
| 20260504230410 | 64 | 269 | 6.0 | 13.0 | 0.00 | 0.11 | 0.00 | 63 | 1020.2 |
| 20260504230308 | 64 | 275 | 8.0 | 13.0 | 0.00 | 0.11 | 0.00 | 62 | 1020.2 |
| 20260504230212 | 64 | 225 | 6.0 | 13.0 | 0.00 | 0.11 | 0.00 | 62 | 1020.2 |
| 20260504230108 | 64 | 275 | 4.0 | 13.0 | 0.00 | 0.11 | 0.00 | 63 | 1020.1 |
| 20260504230018 | 64 | 240 | 7.0 | 13.0 | 0.00 | 0.11 | 0.00 | 63 | 1020.1 |
| 20260504225909 | 64 | 266 | 6.0 | 13.0 | 0.00 | 0.11 | 0.00 | 63 | 1020.1 |
| 20260504225808 | 64 | 285 | 4.0 | 13.0 | 0.00 | 0.11 | 0.00 | 63 | 1020.1 |
| 20260504225711 | 64 | 263 | 4.0 | 13.0 | 0.00 | 0.11 | 0.00 | 63 | 1020.0 |
| 20260504225609 | 64 | 277 | 6.0 | 13.0 | 0.00 | 0.11 | 0.00 | 64 | 1020.0 |
| 20260504225516 | 64 | 257 | 6.0 | 13.0 | 0.00 | 0.11 | 0.00 | 64 | 1019.9 |
| 20260504225410 | 64 | 261 | 5.0 | 13.0 | 0.00 | 0.11 | 0.00 | 64 | 1020.0 |
| 20260504225310 | 64 | 267 | 6.0 | 13.0 | 0.00 | 0.11 | 0.00 | 64 | 1020.0 |
| 20260504225213 | 64 | 273 | 9.0 | 13.0 | 0.00 | 0.11 | 0.00 | 64 | 1020.0 |
| 20260504225110 | 63 | 256 | 8.0 | 13.0 | 0.00 | 0.11 | 0.00 | 65 | 1020.0 |
| 20260504225011 | 63 | 296 | 6.0 | 12.0 | 0.00 | 0.11 | 0.00 | 65 | 1019.9 |
| 20260504224909 | 63 | 276 | 6.0 | 10.0 | 0.00 | 0.11 | 0.00 | 65 | 1019.9 |
| 20260504224810 | 63 | 288 | 6.0 | 10.0 | 0.00 | 0.11 | 0.00 | 66 | 1020.0 |
| 20260504224709 | 63 | 261 | 4.0 | 10.0 | 0.00 | 0.11 | 0.00 | 66 | 1020.0 |
| 20260504224606 | 63 | 273 | 6.0 | 10.0 | 0.00 | 0.11 | 0.00 | 67 | 1020.0 |
| 20260504224507 | 63 | 251 | 7.0 | 10.0 | 0.00 | 0.11 | 0.00 | 66 | 1019.9 |
| 20260504224401 | 63 | 286 | 7.0 | 10.0 | 0.00 | 0.11 | 0.00 | 66 | 1020.0 |
| 20260504224259 | 63 | 296 | 6.0 | 10.0 | 0.00 | 0.11 | 0.00 | 67 | 1020.0 |
| 20260504224157 | 63 | 254 | 6.0 | 10.0 | 0.00 | 0.11 | 0.00 | 67 | 1019.9 |
| 20260504224055 | 63 | 292 | 5.0 | 10.0 | 0.00 | 0.11 | 0.00 | 67 | 1019.9 |
| 20260504223952 | 63 | 292 | 4.0 | 10.0 | 0.00 | 0.11 | 0.00 | 67 | 1019.9 |
| 20260504223851 | 63 | 268 | 4.0 | 10.0 | 0.00 | 0.11 | 0.00 | 67 | 1019.9 |
| 20260504223751 | 63 | 287 | 5.0 | 10.0 | 0.00 | 0.11 | 0.00 | 68 | 1020.0 |
| 20260504223650 | 62 | 274 | 6.0 | 10.0 | 0.00 | 0.11 | 0.00 | 68 | 1019.9 |
| 20260504223549 | 62 | 286 | 6.0 | 10.0 | 0.00 | 0.11 | 0.00 | 68 | 1020.0 |
| 20260504223445 | 62 | 291 | 6.0 | 10.0 | 0.00 | 0.11 | 0.00 | 68 | 1019.9 |
| 20260504223346 | 62 | 293 | 7.0 | 10.0 | 0.00 | 0.11 | 0.00 | 68 | 1020.1 |
| 20260504223244 | 62 | 278 | 7.0 | 10.0 | 0.00 | 0.11 | 0.00 | 68 | 1020.1 |
| 20260504223142 | 62 | 308 | 4.0 | 9.0 | 0.00 | 0.11 | 0.00 | 69 | 1020.0 |
| 20260504223051 | 62 | 267 | 4.0 | 9.0 | 0.00 | 0.11 | 0.00 | 69 | 1020.1 |
| 20260504222943 | 62 | 275 | 4.0 | 9.0 | 0.00 | 0.11 | 0.00 | 69 | 1020.1 |
| 20260504222840 | 62 | 284 | 3.0 | 9.0 | 0.00 | 0.11 | 0.00 | 69 | 1020.1 |
| 20260504222738 | 62 | 259 | 5.0 | 9.0 | 0.00 | 0.11 | 0.00 | 70 | 1020.1 |
| 20260504222637 | 62 | 257 | 6.0 | 9.0 | 0.00 | 0.11 | 0.00 | 70 | 1020.1 |
| 20260504222547 | 62 | 276 | 5.0 | 9.0 | 0.00 | 0.11 | 0.00 | 71 | 1020.2 |
| 20260504222440 | 62 | 298 | 3.0 | 9.0 | 0.00 | 0.11 | 0.00 | 72 | 1020.2 |
| 20260504222339 | 62 | 266 | 2.0 | 8.0 | 0.00 | 0.11 | 0.00 | 73 | 1020.2 |
| 20260504222237 | 61 | 266 | 3.0 | 8.0 | 0.00 | 0.11 | 0.00 | 73 | 1020.1 |
| 20260504222136 | 61 | 281 | 3.0 | 8.0 | 0.00 | 0.11 | 0.00 | 74 | 1020.2 |
| 20260504222034 | 61 | 260 | 4.0 | 8.0 | 0.00 | 0.11 | 0.00 | 74 | 1020.1 |
| 20260504221950 | 61 | 274 | 5.0 | 8.0 | 0.00 | 0.11 | 0.00 | 75 | 1020.2 |
| 20260504221929 | 60 | 274 | 6.0 | 8.0 | 0.00 | 0.11 | 0.00 | 76 | 1020.2 |
| 20260504221909 | 60 | 278 | 4.0 | 8.0 | 0.00 | 0.11 | 0.00 | 77 | 1020.3 |
| 20260504221847 | 60 | 272 | 3.0 | 7.0 | 0.00 | 0.11 | 0.00 | 78 | 1020.2 |
| 20260504221533 | 60 | 271 | 4.0 | 7.0 | 0.00 | 0.11 | 0.00 | 78 | 1020.2 |
| 20260504221432 | 60 | 285 | 4.0 | 7.0 | 0.00 | 0.11 | 0.00 | 79 | 1020.1 |
| 20260504221330 | 59 | 268 | 3.0 | 7.0 | 0.00 | 0.11 | 0.00 | 81 | 1020.2 |
| 20260504221232 | 59 | 271 | 2.0 | 7.0 | 0.00 | 0.11 | 0.00 | 82 | 1020.2 |
| 20260504221130 | 58 | 273 | 3.0 | 7.0 | 0.00 | 0.11 | 0.00 | 82 | 1020.2 |
| 20260504221028 | 58 | 284 | 5.0 | 7.0 | 0.00 | 0.11 | 0.00 | 83 | 1020.2 |
| 20260504220928 | 58 | 287 | 4.0 | 7.0 | 0.00 | 0.11 | 0.00 | 83 | 1020.2 |
| 20260504220830 | 58 | 269 | 2.0 | 6.0 | 0.00 | 0.11 | 0.00 | 84 | 1020.1 |
| 20260504220726 | 58 | 278 | 2.0 | 6.0 | 0.00 | 0.11 | 0.00 | 84 | 1020.2 |
| 20260504220620 | 58 | 296 | 3.0 | 6.0 | 0.00 | 0.11 | 0.00 | 84 | 1020.1 |
| 20260504220521 | 58 | 263 | 3.0 | 6.0 | 0.00 | 0.11 | 0.00 | 84 | 1020.1 |
| 20260504220422 | 58 | 289 | 2.0 | 4.0 | 0.00 | 0.11 | 0.00 | 85 | 1020.1 |
| 20260504220321 | 58 | 298 | 3.0 | 4.0 | 0.00 | 0.11 | 0.00 | 85 | 1020.1 |
| 20260504220219 | 57 | 305 | 3.0 | 7.0 | 0.00 | 0.11 | 0.00 | 86 | 1020.0 |
| 20260504220116 | 57 | 293 | 1.0 | 7.0 | 0.00 | 0.11 | 0.00 | 86 | 1020.0 |
| 20260504220016 | 57 | 309 | 0.0 | 7.0 | 0.00 | 0.11 | 0.00 | 86 | 1020.0 |
| 20260504215916 | 57 | 298 | 0.0 | 7.0 | 0.00 | 0.11 | 0.00 | 86 | 1020.0 |
| 20260504215812 | 57 | 296 | 0.0 | 7.0 | 0.00 | 0.11 | 0.00 | 87 | 1020.0 |
| 20260504215712 | 57 | 302 | 3.0 | 7.0 | 0.00 | 0.11 | 0.00 | 87 | 1020.0 |
| 20260504215612 | 57 | 318 | 3.0 | 7.0 | 0.00 | 0.11 | 0.00 | 87 | 1020.0 |
| 20260504215509 | 57 | 290 | 4.0 | 7.0 | 0.00 | 0.11 | 0.00 | 87 | 1019.9 |
| 20260504215409 | 57 | 313 | 4.0 | 7.0 | 0.00 | 0.11 | 0.00 | 87 | 1019.9 |
| 20260504215309 | 56 | 296 | 3.0 | 7.0 | 0.00 | 0.11 | 0.00 | 88 | 1019.9 |
| 20260504215215 | 56 | 301 | 4.0 | 7.0 | 0.00 | 0.11 | 0.00 | 88 | 1019.9 |
| 20260504215109 | 56 | 304 | 4.0 | 7.0 | 0.00 | 0.11 | 0.00 | 88 | 1019.8 |
| 20260504215010 | 56 | 302 | 3.0 | 7.0 | 0.00 | 0.11 | 0.00 | 88 | 1019.8 |
| 20260504214932 | 56 | 306 | 3.0 | 6.0 | 0.00 | 0.11 | 0.00 | 88 | 1019.7 |
| 20260504214909 | 56 | 288 | 4.0 | 6.0 | 0.00 | 0.11 | 0.00 | 88 | 1019.7 |
| 20260504214849 | 56 | 301 | 3.0 | 6.0 | 0.00 | 0.11 | 0.00 | 89 | 1019.7 |
| 20260504214825 | 56 | 292 | 3.0 | 6.0 | 0.00 | 0.11 | 0.00 | 89 | 1019.6 |
| 20260504214511 | 56 | 291 | 3.0 | 6.0 | 0.00 | 0.11 | 0.00 | 89 | 1019.6 |
| 20260504214411 | 56 | 290 | 3.0 | 6.0 | 0.00 | 0.11 | 0.00 | 89 | 1019.6 |
| 20260504214311 | 56 | 315 | 3.0 | 6.0 | 0.00 | 0.11 | 0.00 | 89 | 1019.6 |
| 20260504214214 | 56 | 296 | 3.0 | 6.0 | 0.00 | 0.11 | 0.00 | 89 | 1019.5 |
| 20260504214109 | 56 | 299 | 3.0 | 6.0 | 0.00 | 0.11 | 0.00 | 89 | 1019.5 |
| 20260504214009 | 56 | 281 | 3.0 | 6.0 | 0.00 | 0.11 | 0.00 | 89 | 1019.5 |
| 20260504213900 | 55 | 276 | 3.0 | 6.0 | 0.00 | 0.11 | 0.00 | 89 | 1019.5 |
| 20260504213759 | 55 | 300 | 3.0 | 5.0 | 0.00 | 0.11 | 0.00 | 89 | 1019.5 |
| 20260504213658 | 55 | 291 | 3.0 | 5.0 | 0.00 | 0.11 | 0.00 | 89 | 1019.5 |
| 20260504213559 | 55 | 303 | 3.0 | 5.0 | 0.00 | 0.11 | 0.00 | 89 | 1019.5 |
| 20260504213458 | 55 | 304 | 4.0 | 5.0 | 0.00 | 0.11 | 0.00 | 89 | 1019.5 |
| 20260504213357 | 55 | 294 | 3.0 | 5.0 | 0.00 | 0.11 | 0.00 | 89 | 1019.4 |
| 20260504213259 | 55 | 295 | 2.0 | 5.0 | 0.00 | 0.11 | 0.00 | 89 | 1019.5 |
| 20260504213158 | 55 | 306 | 2.0 | 5.0 | 0.00 | 0.11 | 0.00 | 89 | 1019.5 |
| 20260504213128 | 55 | 298 | 3.0 | 5.0 | 0.00 | 0.11 | 0.00 | 89 | 1019.4 |
| 20260504213058 | 55 | 305 | 3.0 | 5.0 | 0.00 | 0.11 | 0.00 | 90 | 1019.4 |
| 20260504213030 | 55 | 298 | 3.0 | 5.0 | 0.00 | 0.11 | 0.00 | 90 | 1019.5 |
| 20260504213009 | 55 | 288 | 3.0 | 5.0 | 0.00 | 0.11 | 0.00 | 90 | 1019.4 |
| 20260504212943 | 55 | 288 | 2.0 | 5.0 | 0.00 | 0.11 | 0.00 | 90 | 1019.4 |
| 20260504212922 | 55 | 290 | 2.0 | 5.0 | 0.00 | 0.11 | 0.00 | 89 | 1019.4 |
| 20260504212642 | 55 | 291 | 2.0 | 5.0 | 0.00 | 0.11 | 0.00 | 89 | 1019.5 |
| 20260504212400 | 55 | 281 | 2.0 | 5.0 | 0.00 | 0.11 | 0.00 | 89 | 1019.4 |
| 20260504212338 | 55 | 271 | 2.0 | 4.0 | 0.00 | 0.11 | 0.00 | 89 | 1019.3 |
| 20260504212259 | 55 | 296 | 1.0 | 4.0 | 0.00 | 0.11 | 0.00 | 89 | 1019.4 |
| 20260504212238 | 55 | 302 | 1.0 | 4.0 | 0.00 | 0.11 | 0.00 | 89 | 1019.3 |
| 20260504211939 | 55 | 272 | 1.0 | 4.0 | 0.00 | 0.11 | 0.00 | 89 | 1019.3 |
| 20260504211839 | 55 | 273 | 1.0 | 4.0 | 0.00 | 0.11 | 0.00 | 89 | 1019.4 |
| 20260504211739 | 55 | 279 | 2.0 | 4.0 | 0.00 | 0.11 | 0.00 | 89 | 1019.3 |
| 20260504211639 | 55 | 290 | 2.0 | 4.0 | 0.00 | 0.11 | 0.00 | 89 | 1019.3 |
| 20260504211607 | 55 | 292 | 2.0 | 4.0 | 0.00 | 0.11 | 0.00 | 89 | 1019.3 |
| 20260504211437 | 55 | 307 | 2.0 | 4.0 | 0.00 | 0.11 | 0.00 | 89 | 1019.3 |
| 20260504211338 | 55 | 293 | 2.0 | 4.0 | 0.00 | 0.11 | 0.00 | 89 | 1019.3 |
| 20260504211237 | 55 | 288 | 2.0 | 4.0 | 0.00 | 0.11 | 0.00 | 89 | 1019.4 |
| 20260504211140 | 55 | 301 | 2.0 | 4.0 | 0.00 | 0.11 | 0.00 | 89 | 1019.4 |
| 20260504211038 | 55 | 296 | 2.0 | 3.0 | 0.00 | 0.11 | 0.00 | 89 | 1019.3 |
| 20260504210938 | 55 | 288 | 2.0 | 3.0 | 0.00 | 0.11 | 0.00 | 89 | 1019.2 |
| 20260504210839 | 55 | 292 | 2.0 | 3.0 | 0.00 | 0.11 | 0.00 | 89 | 1019.3 |
| 20260504210734 | 55 | 286 | 2.0 | 3.0 | 0.00 | 0.11 | 0.00 | 89 | 1019.2 |
| 20260504210636 | 55 | 296 | 2.0 | 3.0 | 0.00 | 0.11 | 0.00 | 89 | 1019.2 |
| 20260504210529 | 55 | 302 | 1.0 | 3.0 | 0.00 | 0.11 | 0.00 | 89 | 1019.2 |
| 20260504210428 | 55 | 284 | 1.0 | 3.0 | 0.00 | 0.11 | 0.00 | 89 | 1019.2 |
| 20260504210323 | 55 | 286 | 1.0 | 3.0 | 0.00 | 0.11 | 0.00 | 89 | 1019.2 |
| 20260504210225 | 55 | 291 | 1.0 | 3.0 | 0.00 | 0.11 | 0.00 | 89 | 1019.2 |
| 20260504210122 | 55 | 283 | 2.0 | 3.0 | 0.00 | 0.11 | 0.00 | 89 | 1019.2 |
| 20260504210023 | 55 | 284 | 2.0 | 3.0 | 0.00 | 0.11 | 0.00 | 89 | 1019.2 |
| 20260504205919 | 55 | 273 | 2.0 | 3.0 | 0.00 | 0.11 | 0.00 | 89 | 1019.1 |
| 20260504205816 | 55 | 291 | 2.0 | 3.0 | 0.00 | 0.11 | 0.00 | 89 | 1019.1 |
| 20260504205715 | 55 | 290 | 2.0 | 3.0 | 0.00 | 0.11 | 0.00 | 89 | 1019.1 |
| 20260504205613 | 55 | 279 | 1.0 | 3.0 | 0.00 | 0.11 | 0.00 | 89 | 1019.2 |
| 20260504205410 | 55 | 288 | 1.0 | 3.0 | 0.00 | 0.11 | 0.00 | 89 | 1019.1 |
| 20260504205309 | 55 | 294 | 1.0 | 3.0 | 0.00 | 0.11 | 0.00 | 89 | 1019.1 |
| 20260504205213 | 55 | 282 | 0.0 | 3.0 | 0.00 | 0.11 | 0.00 | 89 | 1019.0 |
| 20260504205109 | 55 | 271 | 0.0 | 2.0 | 0.00 | 0.11 | 0.00 | 89 | 1019.1 |
| 20260504204911 | 55 | 271 | 0.0 | 2.0 | 0.00 | 0.11 | 0.00 | 89 | 1019.0 |
| 20260504204810 | 55 | 271 | 1.0 | 3.0 | 0.00 | 0.11 | 0.00 | 89 | 1019.0 |
| 20260504204712 | 56 | 271 | 1.0 | 3.0 | 0.00 | 0.11 | 0.00 | 89 | 1018.9 |
| 20260504204609 | 56 | 271 | 1.0 | 3.0 | 0.00 | 0.11 | 0.00 | 89 | 1018.8 |
| 20260504204409 | 56 | 271 | 1.0 | 4.0 | 0.00 | 0.11 | 0.00 | 89 | 1018.9 |
| 20260504204309 | 56 | 271 | 1.0 | 4.0 | 0.00 | 0.11 | 0.00 | 89 | 1018.9 |
| 20260504204215 | 56 | 271 | 1.0 | 4.0 | 0.00 | 0.11 | 0.00 | 89 | 1018.8 |
| 20260504204110 | 56 | 271 | 1.0 | 4.0 | 0.00 | 0.11 | 0.00 | 89 | 1018.8 |
| 20260504203909 | 56 | 265 | 1.0 | 4.0 | 0.00 | 0.11 | 0.00 | 89 | 1018.7 |
| 20260504203809 | 56 | 265 | 2.0 | 4.0 | 0.00 | 0.11 | 0.00 | 89 | 1018.6 |
| 20260504203713 | 56 | 265 | 2.0 | 4.0 | 0.00 | 0.11 | 0.00 | 89 | 1018.7 |
| 20260504203607 | 56 | 274 | 2.0 | 4.0 | 0.00 | 0.11 | 0.00 | 89 | 1018.7 |
| 20260504203504 | 56 | 279 | 2.0 | 4.0 | 0.00 | 0.11 | 0.00 | 89 | 1018.6 |
| 20260504203355 | 56 | 275 | 2.0 | 4.0 | 0.00 | 0.11 | 0.00 | 89 | 1018.6 |
| 20260504203249 | 56 | 275 | 1.0 | 4.0 | 0.00 | 0.11 | 0.00 | 89 | 1018.5 |
| 20260504203151 | 56 | 267 | 2.0 | 4.0 | 0.00 | 0.11 | 0.00 | 89 | 1018.5 |
| 20260504203050 | 56 | 276 | 3.0 | 4.0 | 0.00 | 0.11 | 0.00 | 89 | 1018.6 |
| 20260504202952 | 56 | 271 | 3.0 | 4.0 | 0.00 | 0.11 | 0.00 | 89 | 1018.6 |
| 20260504202854 | 56 | 290 | 2.0 | 4.0 | 0.00 | 0.11 | 0.00 | 89 | 1018.6 |
| 20260504202820 | 56 | 279 | 2.0 | 4.0 | 0.00 | 0.11 | 0.00 | 89 | 1018.6 |
| 20260504202754 | 56 | 281 | 2.0 | 4.0 | 0.00 | 0.11 | 0.00 | 89 | 1018.5 |
| 20260504202734 | 56 | 280 | 2.0 | 4.0 | 0.00 | 0.11 | 0.00 | 89 | 1018.5 |
| 20260504202445 | 56 | 294 | 2.0 | 4.0 | 0.00 | 0.11 | 0.00 | 88 | 1018.6 |
| 20260504202341 | 56 | 279 | 2.0 | 4.0 | 0.00 | 0.11 | 0.00 | 88 | 1018.5 |
| 20260504202239 | 56 | 275 | 2.0 | 4.0 | 0.00 | 0.11 | 0.00 | 88 | 1018.4 |
| 20260504202140 | 56 | 279 | 2.0 | 4.0 | 0.00 | 0.11 | 0.00 | 89 | 1018.4 |
| 20260504202039 | 56 | 271 | 2.0 | 4.0 | 0.00 | 0.11 | 0.00 | 89 | 1018.4 |
| 20260504201939 | 56 | 274 | 2.0 | 4.0 | 0.00 | 0.11 | 0.00 | 88 | 1018.4 |
| 20260504201836 | 56 | 267 | 2.0 | 4.0 | 0.00 | 0.11 | 0.00 | 88 | 1018.3 |
| 20260504201739 | 56 | 283 | 2.0 | 4.0 | 0.00 | 0.11 | 0.00 | 88 | 1018.4 |
| 20260504201637 | 56 | 267 | 2.0 | 4.0 | 0.00 | 0.11 | 0.00 | 88 | 1018.3 |
| 20260504201536 | 56 | 272 | 3.0 | 4.0 | 0.00 | 0.11 | 0.00 | 88 | 1018.3 |
| 20260504201500 | 56 | 275 | 2.0 | 4.0 | 0.00 | 0.11 | 0.00 | 88 | 1018.3 |
| 20260504201337 | 56 | 274 | 1.0 | 4.0 | 0.00 | 0.11 | 0.00 | 88 | 1018.4 |
| 20260504201239 | 56 | 276 | 2.0 | 4.0 | 0.00 | 0.11 | 0.00 | 88 | 1018.3 |
| 20260504201137 | 56 | 276 | 2.0 | 4.0 | 0.00 | 0.11 | 0.00 | 88 | 1018.3 |
| 20260504201041 | 56 | 279 | 2.0 | 4.0 | 0.00 | 0.11 | 0.00 | 88 | 1018.3 |
| 20260504200933 | 56 | 275 | 2.0 | 4.0 | 0.00 | 0.11 | 0.00 | 88 | 1018.3 |
| 20260504200834 | 56 | 276 | 2.0 | 4.0 | 0.00 | 0.11 | 0.00 | 88 | 1018.4 |
| 20260504200732 | 56 | 277 | 2.0 | 4.0 | 0.00 | 0.11 | 0.00 | 88 | 1018.3 |
| 20260504200625 | 56 | 288 | 2.0 | 4.0 | 0.00 | 0.11 | 0.00 | 88 | 1018.4 |
| 20260504200525 | 56 | 277 | 2.0 | 4.0 | 0.00 | 0.11 | 0.00 | 88 | 1018.3 |
| 20260504200423 | 56 | 280 | 2.0 | 4.0 | 0.00 | 0.11 | 0.00 | 88 | 1018.4 |
| 20260504200324 | 56 | 277 | 2.0 | 4.0 | 0.00 | 0.11 | 0.00 | 88 | 1018.3 |
| 20260504200225 | 56 | 272 | 3.0 | 4.0 | 0.00 | 0.11 | 0.00 | 88 | 1018.3 |
| 20260504200123 | 56 | 272 | 2.0 | 4.0 | 0.00 | 0.11 | 0.00 | 88 | 1018.3 |
| 20260504200021 | 56 | 267 | 2.0 | 4.0 | 0.00 | 0.11 | 0.00 | 88 | 1018.3 |
| 20260504195921 | 56 | 276 | 2.0 | 4.0 | 0.00 | 0.11 | 0.00 | 88 | 1018.3 |
| 20260504195822 | 56 | 267 | 3.0 | 4.0 | 0.00 | 0.11 | 0.00 | 88 | 1018.3 |
| 20260504195720 | 56 | 281 | 3.0 | 4.0 | 0.00 | 0.11 | 0.00 | 88 | 1018.3 |
| 20260504195625 | 56 | 267 | 2.0 | 4.0 | 0.00 | 0.11 | 0.00 | 88 | 1018.2 |
| 20260504195520 | 56 | 271 | 2.0 | 4.0 | 0.00 | 0.11 | 0.00 | 88 | 1018.3 |
| 20260504195421 | 56 | 254 | 2.0 | 4.0 | 0.00 | 0.11 | 0.00 | 88 | 1018.2 |
| 20260504195340 | 56 | 262 | 2.0 | 4.0 | 0.00 | 0.11 | 0.00 | 88 | 1018.2 |
| 20260504195311 | 56 | 262 | 2.0 | 4.0 | 0.00 | 0.11 | 0.00 | 88 | 1018.2 |
| 20260504195245 | 56 | 267 | 2.0 | 4.0 | 0.00 | 0.11 | 0.00 | 88 | 1018.2 |
| 20260504195221 | 56 | 239 | 2.0 | 4.0 | 0.00 | 0.11 | 0.00 | 88 | 1018.2 |
| 20260504194911 | 56 | 252 | 2.0 | 4.0 | 0.00 | 0.11 | 0.00 | 88 | 1018.1 |
| 20260504194809 | 56 | 255 | 1.0 | 4.0 | 0.00 | 0.11 | 0.00 | 88 | 1018.1 |
| 20260504194714 | 56 | 255 | 1.0 | 4.0 | 0.00 | 0.11 | 0.00 | 88 | 1018.1 |
| 20260504194609 | 56 | 253 | 2.0 | 4.0 | 0.00 | 0.11 | 0.00 | 88 | 1018.1 |
| 20260504194440 | 56 | 274 | 3.0 | 4.0 | 0.00 | 0.11 | 0.00 | 88 | 1018.1 |
| 20260504194342 | 56 | 265 | 3.0 | 4.0 | 0.00 | 0.11 | 0.00 | 88 | 1018.0 |
| 20260504194311 | 56 | 267 | 3.0 | 4.0 | 0.00 | 0.11 | 0.00 | 88 | 1018.1 |
| 20260504194244 | 56 | 267 | 3.0 | 4.0 | 0.00 | 0.11 | 0.00 | 88 | 1018.2 |
| 20260504194221 | 57 | 266 | 3.0 | 4.0 | 0.00 | 0.11 | 0.00 | 88 | 1018.1 |
| 20260504193910 | 56 | 276 | 3.0 | 4.0 | 0.00 | 0.11 | 0.00 | 88 | 1018.2 |
| 20260504193811 | 56 | 260 | 3.0 | 4.0 | 0.00 | 0.11 | 0.00 | 88 | 1018.2 |
| 20260504193712 | 56 | 277 | 3.0 | 4.0 | 0.00 | 0.11 | 0.00 | 88 | 1018.0 |
| 20260504193608 | 57 | 267 | 3.0 | 4.0 | 0.00 | 0.11 | 0.00 | 88 | 1018.1 |
| 20260504193409 | 57 | 275 | 2.0 | 4.0 | 0.00 | 0.11 | 0.00 | 88 | 1018.1 |
| 20260504193309 | 57 | 269 | 2.0 | 4.0 | 0.00 | 0.11 | 0.00 | 88 | 1018.1 |
| 20260504193228 | 57 | 277 | 2.0 | 4.0 | 0.00 | 0.11 | 0.00 | 87 | 1018.0 |
| 20260504193200 | 57 | 272 | 2.0 | 4.0 | 0.00 | 0.11 | 0.00 | 87 | 1018.1 |
| 20260504193110 | 57 | 274 | 2.0 | 4.0 | 0.00 | 0.11 | 0.00 | 87 | 1017.9 |
| 20260504192834 | 57 | 271 | 2.0 | 6.0 | 0.00 | 0.11 | 0.00 | 87 | 1018.0 |
| 20260504192807 | 57 | 273 | 2.0 | 6.0 | 0.00 | 0.11 | 0.00 | 87 | 1018.0 |
| 20260504192747 | 57 | 278 | 2.0 | 6.0 | 0.00 | 0.11 | 0.00 | 87 | 1017.9 |
| 20260504192411 | 57 | 267 | 2.0 | 6.0 | 0.00 | 0.11 | 0.00 | 87 | 1017.9 |
| 20260504192310 | 57 | 272 | 2.0 | 6.0 | 0.00 | 0.11 | 0.00 | 87 | 1018.0 |
| 20260504192215 | 57 | 273 | 2.0 | 6.0 | 0.00 | 0.11 | 0.00 | 87 | 1018.1 |
| 20260504192108 | 57 | 274 | 3.0 | 6.0 | 0.00 | 0.11 | 0.00 | 87 | 1018.0 |
| 20260504191910 | 57 | 277 | 2.0 | 6.0 | 0.00 | 0.11 | 0.00 | 87 | 1018.0 |
| 20260504191810 | 57 | 273 | 2.0 | 6.0 | 0.00 | 0.11 | 0.00 | 87 | 1017.9 |
| 20260504191711 | 57 | 267 | 2.0 | 6.0 | 0.00 | 0.11 | 0.00 | 87 | 1017.9 |
| 20260504191609 | 57 | 265 | 2.0 | 6.0 | 0.00 | 0.11 | 0.00 | 87 | 1018.0 |
| 20260504191438 | 57 | 259 | 2.0 | 6.0 | 0.00 | 0.11 | 0.00 | 87 | 1018.0 |
| 20260504191308 | 57 | 270 | 2.0 | 6.0 | 0.00 | 0.11 | 0.00 | 87 | 1017.9 |
| 20260504191217 | 57 | 277 | 3.0 | 6.0 | 0.00 | 0.11 | 0.00 | 87 | 1017.9 |
| 20260504191109 | 57 | 268 | 3.0 | 6.0 | 0.00 | 0.11 | 0.00 | 87 | 1017.9 |
| 20260504190914 | 57 | 275 | 3.0 | 4.0 | 0.00 | 0.11 | 0.00 | 87 | 1018.0 |
| 20260504190810 | 57 | 265 | 2.0 | 4.0 | 0.00 | 0.11 | 0.00 | 87 | 1017.9 |
| 20260504190713 | 57 | 285 | 2.0 | 4.0 | 0.00 | 0.11 | 0.00 | 87 | 1017.8 |
| 20260504190610 | 57 | 266 | 3.0 | 4.0 | 0.00 | 0.11 | 0.00 | 87 | 1017.8 |
| 20260504190409 | 57 | 269 | 3.0 | 4.0 | 0.00 | 0.11 | 0.00 | 87 | 1017.8 |
| 20260504190310 | 57 | 267 | 3.0 | 4.0 | 0.00 | 0.11 | 0.00 | 87 | 1017.7 |
| 20260504190214 | 57 | 277 | 2.0 | 4.0 | 0.00 | 0.11 | 0.00 | 87 | 1017.7 |
| 20260504190110 | 57 | 267 | 2.0 | 4.0 | 0.00 | 0.11 | 0.00 | 87 | 1017.7 |
| 20260504185910 | 57 | 275 | 2.0 | 4.0 | 0.00 | 0.11 | 0.00 | 87 | 1017.6 |
| 20260504185842 | 57 | 266 | 2.0 | 4.0 | 0.00 | 0.11 | 0.00 | 87 | 1017.5 |
| 20260504185810 | 57 | 268 | 3.0 | 4.0 | 0.00 | 0.11 | 0.00 | 87 | 1017.6 |
| 20260504185749 | 57 | 270 | 3.0 | 4.0 | 0.00 | 0.11 | 0.00 | 86 | 1017.6 |
| 20260504185722 | 57 | 271 | 2.0 | 4.0 | 0.00 | 0.11 | 0.00 | 86 | 1017.5 |
| 20260504185412 | 57 | 278 | 2.0 | 3.0 | 0.00 | 0.11 | 0.00 | 86 | 1017.5 |
| 20260504185310 | 57 | 269 | 2.0 | 3.0 | 0.00 | 0.11 | 0.00 | 86 | 1017.5 |
| 20260504185217 | 57 | 275 | 2.0 | 3.0 | 0.00 | 0.11 | 0.00 | 86 | 1017.5 |
| 20260504185112 | 57 | 269 | 1.0 | 3.0 | 0.00 | 0.11 | 0.00 | 86 | 1017.5 |
| 20260504184911 | 57 | 263 | 1.0 | 3.0 | 0.00 | 0.11 | 0.00 | 86 | 1017.5 |
| 20260504184811 | 57 | 262 | 2.0 | 3.0 | 0.00 | 0.11 | 0.00 | 86 | 1017.4 |
| 20260504184716 | 57 | 262 | 2.0 | 3.0 | 0.00 | 0.11 | 0.00 | 86 | 1017.4 |
| 20260504184609 | 57 | 263 | 2.0 | 3.0 | 0.00 | 0.11 | 0.00 | 86 | 1017.4 |
| 20260504184409 | 57 | 272 | 1.0 | 3.0 | 0.00 | 0.11 | 0.00 | 86 | 1017.5 |
| 20260504184310 | 57 | 282 | 2.0 | 3.0 | 0.00 | 0.11 | 0.00 | 86 | 1017.4 |
| 20260504184248 | 57 | 274 | 2.0 | 3.0 | 0.00 | 0.11 | 0.00 | 86 | 1017.5 |
| 20260504184008 | 57 | 273 | 1.0 | 3.0 | 0.00 | 0.11 | 0.00 | 86 | 1017.4 |
| 20260504183904 | 58 | 269 | 1.0 | 3.0 | 0.00 | 0.11 | 0.00 | 86 | 1017.4 |
| 20260504183809 | 58 | 269 | 2.0 | 3.0 | 0.00 | 0.11 | 0.00 | 86 | 1017.3 |
| 20260504183702 | 58 | 269 | 1.0 | 3.0 | 0.00 | 0.11 | 0.00 | 86 | 1017.3 |
| 20260504183600 | 58 | 274 | 1.0 | 3.0 | 0.00 | 0.11 | 0.00 | 86 | 1017.2 |
| 20260504183457 | 58 | 278 | 1.0 | 4.0 | 0.00 | 0.11 | 0.00 | 86 | 1017.2 |
| 20260504183352 | 58 | 278 | 1.0 | 4.0 | 0.00 | 0.11 | 0.00 | 86 | 1017.2 |
| 20260504183320 | 58 | 272 | 2.0 | 4.0 | 0.00 | 0.11 | 0.00 | 86 | 1017.2 |
| 20260504183252 | 58 | 272 | 2.0 | 4.0 | 0.00 | 0.11 | 0.00 | 86 | 1017.2 |
| 20260504183233 | 58 | 271 | 2.0 | 4.0 | 0.00 | 0.11 | 0.00 | 86 | 1017.1 |
| 20260504182941 | 58 | 266 | 2.0 | 4.0 | 0.00 | 0.11 | 0.00 | 86 | 1017.1 |
| 20260504182844 | 58 | 277 | 2.0 | 4.0 | 0.00 | 0.11 | 0.00 | 86 | 1017.1 |
| 20260504182745 | 58 | 276 | 2.0 | 4.0 | 0.00 | 0.11 | 0.00 | 86 | 1017.1 |
| 20260504182641 | 58 | 270 | 2.0 | 4.0 | 0.00 | 0.11 | 0.00 | 86 | 1017.1 |
| 20260504182543 | 58 | 273 | 2.0 | 4.0 | 0.00 | 0.11 | 0.00 | 86 | 1017.1 |
| 20260504182440 | 58 | 273 | 2.0 | 4.0 | 0.00 | 0.11 | 0.00 | 86 | 1017.0 |
| 20260504182338 | 58 | 277 | 2.0 | 4.0 | 0.00 | 0.11 | 0.00 | 86 | 1017.1 |
| 20260504182239 | 58 | 274 | 2.0 | 4.0 | 0.00 | 0.11 | 0.00 | 86 | 1017.1 |
| 20260504182139 | 58 | 270 | 3.0 | 4.0 | 0.00 | 0.11 | 0.00 | 86 | 1017.1 |
| 20260504182037 | 58 | 268 | 2.0 | 4.0 | 0.00 | 0.11 | 0.00 | 86 | 1017.0 |
| 20260504181936 | 58 | 270 | 2.0 | 4.0 | 0.00 | 0.11 | 0.00 | 86 | 1017.0 |
| 20260504181838 | 58 | 276 | 3.0 | 4.0 | 0.00 | 0.11 | 0.00 | 85 | 1017.0 |
| 20260504181739 | 58 | 271 | 3.0 | 4.0 | 0.00 | 0.11 | 0.00 | 85 | 1017.0 |
| 20260504181637 | 58 | 268 | 2.0 | 4.0 | 0.00 | 0.11 | 0.00 | 85 | 1017.0 |
| 20260504181538 | 58 | 280 | 3.0 | 4.0 | 0.00 | 0.11 | 0.00 | 85 | 1017.0 |
| 20260504181440 | 58 | 275 | 2.0 | 4.0 | 0.00 | 0.11 | 0.00 | 85 | 1017.1 |
| 20260504181337 | 58 | 262 | 2.0 | 4.0 | 0.00 | 0.11 | 0.00 | 85 | 1017.0 |
| 20260504181239 | 58 | 265 | 2.0 | 4.0 | 0.00 | 0.11 | 0.00 | 85 | 1017.0 |
| 20260504181136 | 58 | 277 | 3.0 | 4.0 | 0.00 | 0.11 | 0.00 | 85 | 1017.1 |
| 20260504181039 | 58 | 279 | 3.0 | 4.0 | 0.00 | 0.11 | 0.00 | 85 | 1017.0 |
| 20260504180937 | 58 | 268 | 3.0 | 4.0 | 0.00 | 0.11 | 0.00 | 85 | 1017.0 |
| 20260504180837 | 58 | 279 | 2.0 | 4.0 | 0.00 | 0.11 | 0.00 | 85 | 1017.0 |
| 20260504180738 | 58 | 263 | 2.0 | 4.0 | 0.00 | 0.11 | 0.00 | 85 | 1017.0 |
| 20260504180638 | 58 | 264 | 3.0 | 4.0 | 0.00 | 0.11 | 0.00 | 85 | 1017.0 |
| 20260504180537 | 58 | 265 | 3.0 | 4.0 | 0.00 | 0.11 | 0.00 | 85 | 1017.0 |
| 20260504180437 | 58 | 267 | 3.0 | 4.0 | 0.00 | 0.11 | 0.00 | 85 | 1017.0 |
| 20260504180346 | 58 | 269 | 3.0 | 3.0 | 0.00 | 0.11 | 0.00 | 85 | 1017.0 |
| 20260504180326 | 58 | 273 | 2.0 | 3.0 | 0.00 | 0.11 | 0.00 | 85 | 1016.9 |
| 20260504180254 | 58 | 271 | 2.0 | 3.0 | 0.00 | 0.11 | 0.00 | 85 | 1017.0 |
| 20260504180234 | 58 | 278 | 1.0 | 3.0 | 0.00 | 0.11 | 0.00 | 84 | 1017.0 |
| 20260504175937 | 58 | 278 | 1.0 | 3.0 | 0.00 | 0.11 | 0.00 | 84 | 1017.0 |
| 20260504175839 | 58 | 278 | 1.0 | 3.0 | 0.00 | 0.11 | 0.00 | 84 | 1016.9 |
| 20260504175739 | 58 | 278 | 1.0 | 3.0 | 0.00 | 0.11 | 0.00 | 84 | 1017.0 |
| 20260504175638 | 58 | 278 | 1.0 | 3.0 | 0.00 | 0.11 | 0.00 | 84 | 1017.0 |
| 20260504175536 | 58 | 277 | 1.0 | 3.0 | 0.00 | 0.11 | 0.00 | 84 | 1017.0 |
| 20260504175437 | 58 | 271 | 1.0 | 3.0 | 0.00 | 0.11 | 0.00 | 84 | 1017.1 |
| 20260504175340 | 58 | 271 | 2.0 | 3.0 | 0.00 | 0.11 | 0.00 | 84 | 1017.0 |
| 20260504175237 | 58 | 271 | 2.0 | 3.0 | 0.00 | 0.11 | 0.00 | 84 | 1017.0 |
| 20260504175139 | 58 | 278 | 1.0 | 3.0 | 0.00 | 0.11 | 0.00 | 84 | 1017.1 |
| 20260504175039 | 58 | 268 | 2.0 | 3.0 | 0.00 | 0.11 | 0.00 | 84 | 1017.0 |
| 20260504174937 | 58 | 267 | 2.0 | 3.0 | 0.00 | 0.11 | 0.00 | 84 | 1017.0 |
| 20260504174837 | 58 | 268 | 2.0 | 3.0 | 0.00 | 0.11 | 0.00 | 84 | 1017.1 |
| 20260504174740 | 58 | 268 | 2.0 | 3.0 | 0.00 | 0.11 | 0.00 | 84 | 1017.0 |
| 20260504174643 | 58 | 270 | 2.0 | 3.0 | 0.00 | 0.11 | 0.00 | 84 | 1017.0 |
| 20260504174537 | 58 | 263 | 2.0 | 3.0 | 0.00 | 0.11 | 0.00 | 84 | 1017.1 |
| 20260504174338 | 59 | 265 | 1.0 | 3.0 | 0.00 | 0.11 | 0.00 | 84 | 1017.1 |
| 20260504174238 | 59 | 257 | 1.0 | 2.0 | 0.00 | 0.11 | 0.00 | 84 | 1017.1 |
| 20260504174140 | 59 | 268 | 1.0 | 4.0 | 0.00 | 0.11 | 0.00 | 84 | 1017.0 |
| 20260504174044 | 59 | 268 | 1.0 | 4.0 | 0.00 | 0.11 | 0.00 | 84 | 1017.0 |
| 20260504173940 | 59 | 268 | 1.0 | 4.0 | 0.00 | 0.11 | 0.00 | 84 | 1017.1 |
| 20260504173837 | 59 | 268 | 1.0 | 4.0 | 0.00 | 0.11 | 0.00 | 84 | 1017.1 |
| 20260504173737 | 59 | 268 | 1.0 | 4.0 | 0.00 | 0.11 | 0.00 | 84 | 1017.0 |
| 20260504173637 | 59 | 268 | 1.0 | 4.0 | 0.00 | 0.11 | 0.00 | 84 | 1017.0 |
| 20260504173539 | 59 | 268 | 1.0 | 4.0 | 0.00 | 0.11 | 0.00 | 84 | 1017.1 |
| 20260504173440 | 59 | 268 | 1.0 | 4.0 | 0.00 | 0.11 | 0.00 | 84 | 1017.1 |
| 20260504173338 | 59 | 268 | 2.0 | 4.0 | 0.00 | 0.11 | 0.00 | 84 | 1017.0 |
| 20260504173238 | 59 | 267 | 2.0 | 4.0 | 0.00 | 0.11 | 0.00 | 84 | 1017.0 |
| 20260504173139 | 59 | 269 | 1.0 | 3.0 | 0.00 | 0.11 | 0.00 | 84 | 1017.1 |
| 20260504173037 | 59 | 265 | 1.0 | 3.0 | 0.00 | 0.11 | 0.00 | 84 | 1017.1 |
| 20260504172932 | 59 | 262 | 2.0 | 3.0 | 0.00 | 0.11 | 0.00 | 84 | 1017.0 |
| 20260504172824 | 59 | 268 | 2.0 | 3.0 | 0.00 | 0.11 | 0.00 | 84 | 1017.1 |
| 20260504172756 | 59 | 265 | 2.0 | 3.0 | 0.00 | 0.11 | 0.00 | 84 | 1017.0 |
| 20260504172735 | 59 | 272 | 2.0 | 3.0 | 0.00 | 0.11 | 0.00 | 84 | 1017.0 |
| 20260504172708 | 59 | 268 | 0.0 | 3.0 | 0.00 | 0.11 | 0.00 | 84 | 1017.1 |
| 20260504172415 | 60 | 272 | 0.0 | 2.0 | 0.00 | 0.11 | 0.00 | 84 | 1017.1 |
| 20260504172311 | 60 | 272 | 0.0 | 1.0 | 0.00 | 0.11 | 0.00 | 84 | 1017.1 |
| 20260504172217 | 60 | 272 | 0.0 | 2.0 | 0.00 | 0.11 | 0.00 | 83 | 1017.1 |
| 20260504172111 | 60 | 272 | 0.0 | 3.0 | 0.00 | 0.11 | 0.00 | 84 | 1017.1 |
| 20260504172010 | 60 | 271 | 0.0 | 3.0 | 0.00 | 0.11 | 0.00 | 84 | 1017.1 |
| 20260504171910 | 60 | 271 | 0.0 | 3.0 | 0.00 | 0.11 | 0.00 | 84 | 1017.2 |
| 20260504171811 | 60 | 271 | 0.0 | 3.0 | 0.00 | 0.11 | 0.00 | 84 | 1017.1 |
| 20260504171713 | 60 | 271 | 0.0 | 3.0 | 0.00 | 0.11 | 0.00 | 84 | 1017.2 |
| 20260504171609 | 60 | 271 | 0.0 | 3.0 | 0.00 | 0.11 | 0.00 | 84 | 1017.2 |
| 20260504171509 | 60 | 271 | 1.0 | 3.0 | 0.00 | 0.11 | 0.00 | 83 | 1017.2 |
| 20260504171409 | 60 | 271 | 1.0 | 3.0 | 0.00 | 0.11 | 0.00 | 83 | 1017.2 |
| 20260504171310 | 60 | 271 | 1.0 | 3.0 | 0.00 | 0.11 | 0.00 | 83 | 1017.3 |
| 20260504171217 | 60 | 271 | 2.0 | 3.0 | 0.00 | 0.11 | 0.00 | 83 | 1017.3 |
| 20260504171116 | 60 | 272 | 2.0 | 3.0 | 0.00 | 0.11 | 0.00 | 83 | 1017.2 |
| 20260504171006 | 60 | 271 | 2.0 | 3.0 | 0.00 | 0.11 | 0.00 | 83 | 1017.2 |
| 20260504170909 | 60 | 272 | 1.0 | 3.0 | 0.00 | 0.11 | 0.00 | 83 | 1017.3 |
| 20260504170759 | 60 | 272 | 1.0 | 3.0 | 0.00 | 0.11 | 0.00 | 83 | 1017.3 |
| 20260504170714 | 60 | 272 | 1.0 | 3.0 | 0.00 | 0.11 | 0.00 | 83 | 1017.3 |
| 20260504170642 | 60 | 272 | 2.0 | 3.0 | 0.00 | 0.11 | 0.00 | 83 | 1017.3 |
| 20260504170548 | 60 | 272 | 1.0 | 2.0 | 0.00 | 0.11 | 0.00 | 83 | 1017.3 |
| 20260504170314 | 60 | 271 | 1.0 | 2.0 | 0.00 | 0.11 | 0.00 | 83 | 1017.3 |
| 20260504170247 | 60 | 271 | 1.0 | 2.0 | 0.00 | 0.11 | 0.00 | 83 | 1017.3 |
| 20260504170221 | 60 | 272 | 1.0 | 2.0 | 0.00 | 0.11 | 0.00 | 83 | 1017.2 |
| 20260504170158 | 60 | 272 | 1.0 | 2.0 | 0.00 | 0.11 | 0.00 | 83 | 1017.2 |
| 20260504160434 | 62 | 265 | 2.0 | 6.0 | 0.00 | 0.11 | 0.00 | 85 | 1017.5 |
| 20260504160324 | 62 | 262 | 2.0 | 6.0 | 0.00 | 0.11 | 0.00 | 85 | 1017.4 |
| 20260504160223 | 62 | 266 | 2.0 | 6.0 | 0.00 | 0.11 | 0.00 | 85 | 1017.5 |
| 20260504160123 | 62 | 257 | 2.0 | 6.0 | 0.00 | 0.11 | 0.00 | 85 | 1017.5 |
| 20260504151140 | 63 | 240 | 1.0 | 2.0 | 0.00 | 0.11 | 0.00 | 88 | 1017.1 |
| 20260504151011 | 63 | 238 | 0.0 | 2.0 | 0.00 | 0.11 | 0.00 | 88 | 1017.2 |
| 20260504150908 | 63 | 211 | 1.0 | 2.0 | 0.00 | 0.11 | 0.00 | 88 | 1017.1 |
| 20260504150811 | 63 | 211 | 1.0 | 2.0 | 0.00 | 0.11 | 0.00 | 88 | 1017.2 |
| 20260504150709 | 63 | 211 | 0.0 | 2.0 | 0.00 | 0.11 | 0.00 | 88 | 1017.1 |
| 20260504150557 | 63 | 268 | 0.0 | 3.0 | 0.00 | 0.11 | 0.00 | 88 | 1017.2 |
| 20260504150501 | 63 | 268 | 0.0 | 3.0 | 0.00 | 0.11 | 0.00 | 88 | 1017.2 |
| 20260504150256 | 63 | 275 | 0.0 | 3.0 | 0.00 | 0.11 | 0.00 | 88 | 1017.3 |
| 20260504150208 | 63 | 275 | 0.0 | 4.0 | 0.00 | 0.11 | 0.00 | 88 | 1017.3 |
| 20260504150145 | 63 | 275 | 0.0 | 4.0 | 0.00 | 0.11 | 0.00 | 88 | 1017.3 |
| 20260504150128 | 63 | 275 | 1.0 | 4.0 | 0.00 | 0.11 | 0.00 | 88 | 1017.4 |
| 20260504141309 | 64 | 271 | 2.0 | 6.0 | 0.00 | 0.11 | 0.00 | 88 | 1017.2 |
| 20260504141214 | 64 | 270 | 2.0 | 6.0 | 0.00 | 0.11 | 0.00 | 88 | 1017.3 |
| 20260504141120 | 64 | 261 | 3.0 | 6.0 | 0.00 | 0.11 | 0.00 | 88 | 1017.2 |
| 20260504141010 | 64 | 244 | 2.0 | 6.0 | 0.00 | 0.11 | 0.00 | 87 | 1017.2 |
| 20260504140914 | 64 | 258 | 2.0 | 6.0 | 0.00 | 0.11 | 0.00 | 87 | 1017.4 |
| 20260504140812 | 64 | 281 | 2.0 | 6.0 | 0.00 | 0.11 | 0.00 | 87 | 1017.3 |
| 20260504140712 | 64 | 259 | 2.0 | 6.0 | 0.00 | 0.11 | 0.00 | 87 | 1017.5 |
| 20260504140610 | 64 | 275 | 3.0 | 6.0 | 0.00 | 0.11 | 0.00 | 87 | 1017.4 |
| 20260504140509 | 64 | 277 | 3.0 | 6.0 | 0.00 | 0.11 | 0.00 | 87 | 1017.4 |
| 20260504140414 | 64 | 259 | 2.0 | 6.0 | 0.00 | 0.11 | 0.00 | 87 | 1017.3 |
| 20260504140310 | 64 | 271 | 2.0 | 6.0 | 0.00 | 0.11 | 0.00 | 87 | 1017.3 |
| 20260504140217 | 64 | 292 | 2.0 | 6.0 | 0.00 | 0.11 | 0.00 | 87 | 1017.3 |
| 20260504140113 | 64 | 256 | 2.0 | 6.0 | 0.00 | 0.11 | 0.00 | 87 | 1017.3 |
| 20260504130737 | 65 | 258 | 3.0 | 7.0 | 0.00 | 0.11 | 0.11 | 83 | 1017.2 |
| 20260504130635 | 65 | 266 | 3.0 | 7.0 | 0.00 | 0.11 | 0.11 | 83 | 1017.2 |
| 20260504130534 | 65 | 263 | 2.0 | 6.0 | 0.00 | 0.11 | 0.11 | 83 | 1017.2 |
| 20260504130432 | 65 | 286 | 2.0 | 6.0 | 0.00 | 0.11 | 0.11 | 83 | 1017.2 |
| 20260504130337 | 65 | 302 | 2.0 | 6.0 | 0.00 | 0.11 | 0.11 | 83 | 1017.3 |
| 20260504130234 | 65 | 286 | 1.0 | 6.0 | 0.00 | 0.11 | 0.11 | 83 | 1017.2 |
| 20260504130145 | 65 | 253 | 1.0 | 8.0 | 0.00 | 0.11 | 0.11 | 83 | 1017.2 |
| 20260504130121 | 65 | 246 | 2.0 | 8.0 | 0.00 | 0.11 | 0.11 | 83 | 1017.2 |
| 20260504130104 | 65 | 265 | 2.0 | 8.0 | 0.00 | 0.11 | 0.11 | 83 | 1017.2 |
| 20260504120237 | 66 | 274 | 2.0 | 4.0 | 0.00 | 0.11 | 0.11 | 81 | 1016.9 |
| 20260504120139 | 66 | 262 | 2.0 | 4.0 | 0.00 | 0.11 | 0.11 | 81 | 1017.0 |
| 20260504110646 | 67 | 22 | 2.0 | 8.0 | 0.00 | 0.11 | 0.11 | 80 | 1016.5 |
| 20260504110617 | 67 | 5 | 1.0 | 8.0 | 0.00 | 0.11 | 0.11 | 80 | 1016.5 |
| 20260504110553 | 67 | 333 | 2.0 | 8.0 | 0.00 | 0.11 | 0.11 | 80 | 1016.6 |
| 20260504110253 | 67 | 15 | 3.0 | 8.0 | 0.00 | 0.11 | 0.11 | 80 | 1016.6 |
| 20260504110151 | 67 | 15 | 3.0 | 8.0 | 0.00 | 0.11 | 0.11 | 80 | 1016.5 |
| 20260504110114 | 67 | 46 | 3.0 | 8.0 | 0.00 | 0.11 | 0.11 | 80 | 1016.5 |
| 20260504100610 | 67 | 30 | 4.0 | 8.0 | 0.00 | 0.11 | 0.11 | 81 | 1015.9 |
| 20260504100511 | 67 | 46 | 4.0 | 8.0 | 0.00 | 0.11 | 0.11 | 81 | 1015.9 |
| 20260504100410 | 67 | 55 | 4.0 | 7.0 | 0.00 | 0.11 | 0.11 | 81 | 1015.9 |
| 20260504100215 | 67 | 18 | 3.0 | 6.0 | 0.00 | 0.11 | 0.11 | 81 | 1016.0 |
| 20260504100112 | 67 | 53 | 3.0 | 6.0 | 0.00 | 0.11 | 0.11 | 81 | 1016.0 |
| 20260504081909 | 67 | 66 | 3.0 | 7.0 | 0.00 | 0.11 | 0.11 | 84 | 1015.9 |
| 20260504081809 | 67 | 57 | 3.0 | 7.0 | 0.00 | 0.11 | 0.11 | 84 | 1016.0 |
| 20260504081711 | 67 | 29 | 2.0 | 7.0 | 0.00 | 0.11 | 0.11 | 84 | 1016.0 |
| 20260504081611 | 67 | 36 | 2.0 | 7.0 | 0.00 | 0.11 | 0.11 | 84 | 1015.9 |
| 20260504081511 | 67 | 28 | 2.0 | 7.0 | 0.00 | 0.11 | 0.11 | 83 | 1015.9 |
| 20260504081410 | 67 | 27 | 2.0 | 7.0 | 0.00 | 0.11 | 0.11 | 84 | 1015.9 |
| 20260504081315 | 67 | 42 | 2.0 | 6.0 | 0.00 | 0.11 | 0.11 | 84 | 1016.0 |
| 20260504081215 | 67 | 79 | 3.0 | 6.0 | 0.00 | 0.11 | 0.11 | 84 | 1016.0 |
| 20260504081114 | 67 | 63 | 3.0 | 6.0 | 0.00 | 0.11 | 0.11 | 84 | 1015.8 |
| 20260504081010 | 67 | 52 | 3.0 | 6.0 | 0.00 | 0.11 | 0.11 | 84 | 1015.9 |
| 20260504080914 | 67 | 31 | 3.0 | 6.0 | 0.00 | 0.11 | 0.11 | 84 | 1015.9 |
| 20260504080810 | 67 | 53 | 3.0 | 6.0 | 0.00 | 0.11 | 0.11 | 84 | 1015.9 |
| 20260504080737 | 67 | 39 | 2.0 | 5.0 | 0.00 | 0.11 | 0.11 | 84 | 1016.0 |
| 20260504080609 | 67 | 5 | 2.0 | 5.0 | 0.00 | 0.11 | 0.11 | 84 | 1015.9 |
| 20260504080528 | 67 | 50 | 2.0 | 4.0 | 0.00 | 0.11 | 0.11 | 84 | 1016.0 |
| 20260504080503 | 67 | 69 | 2.0 | 4.0 | 0.00 | 0.11 | 0.11 | 84 | 1016.0 |
| 20260504080443 | 67 | 55 | 2.0 | 4.0 | 0.00 | 0.11 | 0.11 | 84 | 1016.0 |
| 20260504080407 | 67 | 5 | 2.0 | 4.0 | 0.00 | 0.11 | 0.11 | 84 | 1015.9 |
| 20260504080130 | 67 | 42 | 2.0 | 4.0 | 0.00 | 0.11 | 0.11 | 84 | 1015.9 |